Latitude: N 50° 09' 49" Longitude: W 05° 11' 53" Elevation: 168m ASL

There are 7 visitors online

Adverts

<- Previous Day | Today | Next Day ->

All Data for 22 September 2019

Time
A - D
Temp
A - D
Dew Point
A - D
Humidity
A - D
Pressure
A - D
Wind
A - D
Wind Dir Gust
A - D
Rain Rate
A - D
Rain Total
00:00 16.8 16.2 96 1002.0 11.4 S 11.4 0.8 0.0
00:01 16.8 16.2 96 1002.1 11.4 S 11.4 0.8 0.0
00:02 16.8 16.2 96 1001.9 4.5 SE 11.4 0.8 0.0
00:03 16.8 16.2 96 1002.0 9.2 S 11.4 0.8 0.1
00:04 16.8 16.2 96 1002.0 9.8 SE 11.4 1.5 0.1
00:05 16.8 16.2 96 1002.0 6.9 E 11.4 0.8 0.1
00:06 16.8 16.2 96 1002.0 4.5 S 11.4 1.5 0.1
00:07 16.8 16.2 96 1001.8 6.9 SE 11.4 1.5 0.1
00:08 16.8 16.2 96 1001.9 6.9 SE 11.4 2.3 0.2
00:09 16.8 16.2 96 1001.9 6.9 SE 11.4 1.5 0.2
00:10 16.8 16.2 96 1002.0 6.0 SSE 11.4 1.5 0.2
00:11 16.8 16.2 96 1002.0 6.0 SE 11.4 0.8 0.2
00:12 16.8 16.2 96 1001.9 5.4 SE 9.8 0.8 0.2
00:14 16.8 16.3 97 1002.0 0.0 SSW 9.8 0.0 0.2
00:15 16.8 16.2 96 1002.0 0.0 SSE 8.3 0.8 0.3
00:16 16.8 16.3 97 1001.9 8.3 S 9.8 0.8 0.3
00:17 16.8 16.3 97 1002.1 6.9 S 9.8 1.5 0.3
00:18 16.8 16.3 97 1001.8 13.0 SE 13.0 1.5 0.3
00:19 16.8 16.3 97 1001.9 7.6 SE 13.0 1.5 0.3
00:20 16.8 16.3 97 1001.9 7.6 SE 13.0 0.8 0.3
00:21 16.8 16.3 97 1001.9 8.3 SE 13.0 0.8 0.3
00:22 16.8 16.3 97 1001.9 10.7 SE 13.0 0.0 0.3
00:23 16.8 16.3 97 1001.9 9.8 S 13.0 0.0 0.3
00:24 16.8 16.3 97 1001.8 6.9 S 13.0 0.0 0.3
00:25 16.8 16.3 97 1001.9 6.0 S 13.0 0.0 0.3
00:26 16.8 16.3 97 1001.6 0.0 S 13.0 0.0 0.3
00:27 16.8 16.3 97 1001.8 0.0 SE 13.0 0.0 0.3
00:28 16.8 16.3 97 1001.9 0.0 SE 13.0 0.0 0.3
00:29 16.7 16.2 97 1001.7 8.3 SW 13.0 0.0 0.3
00:30 16.7 16.2 97 1001.7 2.2 SE 10.7 0.0 0.3
00:31 16.8 16.3 97 1001.8 8.3 SE 10.7 0.0 0.3
00:33 16.7 16.2 97 1001.9 7.6 S 10.7 0.0 0.3
00:34 16.7 16.2 97 1001.7 9.8 SE 9.8 0.0 0.3
00:35 16.7 16.2 97 1001.8 7.6 S 9.8 0.0 0.3
00:36 16.7 16.2 97 1001.6 6.0 S 9.8 0.0 0.3
00:37 16.7 16.2 97 1001.6 6.9 S 9.8 0.0 0.3
00:38 16.7 16.2 97 1001.6 6.0 S 9.8 0.0 0.3
00:39 16.7 16.2 97 1001.5 6.9 S 9.8 0.0 0.3
00:40 16.7 16.2 97 1001.6 9.8 S 9.8 0.0 0.3
00:41 16.7 16.2 97 1001.6 6.9 SE 9.8 0.0 0.3
00:42 16.7 16.2 97 1001.6 7.6 S 9.8 0.0 0.3
00:43 16.7 16.2 97 1001.6 9.2 S 9.8 0.0 0.3
00:44 16.7 16.2 97 1001.6 9.2 S 9.8 0.0 0.3
00:45 16.7 16.2 97 1001.5 4.5 S 9.8 0.0 0.4
00:46 16.7 16.2 97 1001.7 7.6 S 9.8 0.8 0.4
00:47 16.7 16.4 98 1001.5 6.0 S 9.8 0.8 0.4
00:48 16.7 16.4 98 1001.7 7.6 SE 9.8 0.8 0.4
00:49 16.7 16.4 98 1001.5 8.3 S 9.8 1.5 0.5
00:50 16.7 16.4 98 1001.6 5.4 S 9.8 2.3 0.5
00:52 16.7 16.4 98 1001.7 7.6 S 9.8 2.3 0.6
00:53 16.7 16.4 98 1001.3 8.3 SW 9.2 2.3 0.6
00:54 16.6 16.3 98 1001.5 8.3 SSE 9.2 2.3 0.6
00:55 16.6 16.3 98 1001.5 11.4 SW 11.4 1.5 0.6
00:56 16.6 16.3 98 1001.5 5.4 S 11.4 0.8 0.6
00:57 16.6 16.3 98 1001.5 9.2 S 11.4 0.8 0.6
00:58 16.6 16.3 98 1001.5 13.0 S 13.0 0.8 0.6
00:59 16.6 16.3 98 1001.5 12.1 S 13.0 0.0 0.6
01:00 16.6 16.3 98 1001.4 10.7 SE 13.0 0.0 0.6
01:01 16.6 16.3 98 1001.5 10.7 SE 13.0 0.0 0.6
01:02 16.6 16.3 98 1001.3 10.7 SE 13.0 0.0 0.6
01:03 16.6 16.3 98 1001.2 10.7 SE 13.0 0.0 0.6
01:04 16.6 16.3 98 1001.3 10.7 SE 13.0 0.0 0.6
01:05 16.5 16.2 98 1001.5 11.4 SE 13.0 2.3 0.8
01:06 16.5 16.2 98 1001.5 12.1 SE 13.0 2.3 0.8
01:07 16.5 16.2 98 1001.1 8.3 S 13.0 3.0 0.9
01:08 16.5 16.2 98 1001.3 6.9 S 13.0 3.0 0.9
01:09 16.5 16.2 98 1001.3 9.2 SE 12.1 3.0 0.9
01:10 16.5 16.2 98 1001.4 7.6 S 12.1 0.8 0.9
01:11 16.4 16.1 98 1001.3 9.8 S 12.1 0.8 0.9
01:12 16.4 16.1 98 1001.1 8.3 S 12.1 0.0 0.9
01:13 16.5 16.2 98 1001.2 7.6 S 12.1 0.0 0.9
01:14 16.4 16.1 98 1001.3 6.0 S 12.1 0.0 0.9
01:15 16.4 16.1 98 1001.4 0.0 SE 12.1 0.0 0.9
01:16 16.4 16.1 98 1001.3 8.3 S 12.1 0.0 0.9
01:17 16.4 16.1 98 1001.2 9.2 SE 10.7 0.0 0.9
01:18 16.4 16.1 98 1001.3 6.9 SSW 10.7 0.0 0.9
01:19 16.4 16.1 98 1001.2 6.9 S 10.7 0.0 0.9
01:20 16.4 16.1 98 1001.2 9.8 S 10.7 0.0 0.9
01:21 16.4 16.1 98 1001.4 8.3 SSE 10.7 0.0 0.9
01:22 16.4 16.1 98 1001.3 6.0 SE 10.7 0.8 0.9
01:23 16.4 16.1 98 1001.4 7.6 SE 10.7 0.8 1.0
01:24 16.4 16.1 98 1001.3 9.8 SE 10.7 2.3 1.1
01:26 16.4 16.1 98 1001.2 9.8 SE 9.8 3.0 1.1
01:27 16.4 16.1 98 1001.2 7.6 SE 9.8 2.3 1.2
01:28 16.4 16.1 98 1001.1 6.0 S 9.8 3.0 1.2
01:30 16.4 16.1 98 1001.2 7.6 S 9.8 0.8 1.2
01:31 16.4 16.1 98 1001.1 9.2 SE 9.8 0.8 1.3
01:32 16.4 16.1 98 1001.2 8.3 S 9.8 2.3 1.3
01:33 16.4 16.1 98 1001.0 9.2 SE 9.8 2.3 1.4
01:34 16.4 16.1 98 1001.0 9.8 SE 9.8 2.3 1.4
01:35 16.3 16.0 98 1001.2 6.9 SE 9.8 2.3 1.4
01:36 16.4 16.1 98 1001.3 11.4 SE 11.4 2.3 1.4
01:37 16.3 16.0 98 1001.2 7.6 SE 11.4 1.5 1.4
01:38 16.4 16.1 98 1001.2 9.2 SE 11.4 0.8 1.4
01:39 16.4 16.3 99 1001.1 6.9 S 11.4 0.8 1.4
01:40 16.4 16.3 99 1001.1 7.6 S 11.4 0.8 1.4
01:41 16.4 16.3 99 1001.2 11.4 SE 11.4 0.8 1.4
01:42 16.4 16.3 99 1001.2 6.0 SE 11.4 0.0 1.4
01:43 16.4 16.3 99 1001.3 6.0 SE 11.4 0.0 1.4
01:44 16.3 16.2 99 1001.2 7.6 SE 11.4 0.0 1.4
01:45 16.4 16.3 99 1001.1 6.0 SE 11.4 0.0 1.4
01:46 16.4 16.3 99 1001.1 7.6 S 11.4 0.0 1.4
01:47 16.4 16.3 99 1001.2 12.1 SW 12.1 0.0 1.6
01:48 16.3 16.2 99 1001.3 8.3 SE 12.1 2.3 1.7
01:50 16.4 16.3 99 1001.2 11.4 S 12.1 3.8 1.8
01:51 16.4 16.3 99 1001.2 11.4 SE 13.0 4.5 2.0
01:52 16.3 16.2 99 1001.0 7.6 SE 13.0 6.8 2.1
01:53 16.3 16.2 99 1001.0 7.6 SE 13.0 5.3 2.1
01:54 16.3 16.2 99 1001.0 6.9 S 13.0 5.3 2.1
01:55 16.3 16.2 99 1001.1 9.8 SE 13.0 5.3 2.2
01:56 16.3 16.2 99 1001.0 9.2 S 13.0 5.3 2.3
01:57 16.3 16.2 99 1001.0 8.3 SE 13.0 3.0 2.3
01:58 16.3 16.2 99 1001.1 13.6 S 13.6 3.0 2.3
01:59 16.3 16.2 99 1001.1 10.7 SE 13.6 2.3 2.3
02:00 16.3 16.2 99 1001.2 10.7 S 13.6 2.3 2.4
02:01 16.3 16.2 99 1001.0 10.7 S 13.6 1.5 2.4
02:02 16.3 16.2 99 1001.1 10.7 S 13.6 1.5 2.4
02:03 16.3 16.2 99 1001.0 10.7 S 13.6 0.8 2.4
02:04 16.3 16.2 99 1000.9 10.7 S 13.6 0.8 2.4
02:05 16.3 16.2 99 1001.0 5.4 S 13.6 0.0 2.6
02:06 16.3 16.2 99 1001.0 6.0 SE 13.6 2.3 2.6
02:07 16.3 16.2 99 1000.8 8.3 SE 13.6 2.3 2.6
02:09 16.3 16.2 99 1000.7 7.6 SE 10.7 3.0 2.6
02:10 16.3 16.2 99 1000.6 4.5 E 10.7 3.0 2.6
02:11 16.3 16.2 99 1000.7 5.4 SE 10.7 0.8 2.7
02:12 16.3 16.2 99 1000.7 6.9 SE 10.7 1.5 2.7
02:13 16.3 16.2 99 1000.7 11.4 SE 11.4 0.8 2.7
02:14 16.3 16.2 99 1000.7 7.6 SE 11.4 0.8 2.7
02:15 16.3 16.2 99 1000.8 7.6 SE 11.4 1.5 2.8
02:16 16.3 16.2 99 1000.7 8.3 S 11.4 1.5 2.8
02:17 16.2 16.1 99 1000.5 10.7 SE 11.4 1.5 2.8
02:18 16.2 16.1 99 1000.6 7.6 SE 11.4 1.5 2.8
02:19 16.2 16.1 99 1000.5 5.4 SE 11.4 1.5 2.8
02:20 16.2 16.1 99 1000.6 9.2 S 11.4 0.8 2.8
02:21 16.2 16.1 99 1000.6 6.9 S 11.4 0.8 2.9
02:22 16.2 16.1 99 1000.5 8.3 S 11.4 0.8 2.9
02:23 16.2 16.1 99 1000.5 8.3 SE 10.7 0.8 2.9
02:24 16.2 16.1 99 1000.5 5.4 SE 10.7 0.8 2.9
02:25 16.2 16.1 99 1000.5 8.3 SE 10.7 0.8 2.9
02:26 16.2 16.1 99 1000.5 7.6 S 10.7 0.8 2.9
02:28 16.2 16.1 99 1000.5 9.8 SE 9.8 0.8 3.0
02:29 16.2 16.1 99 1000.6 11.4 S 11.4 0.8 3.0
02:30 16.2 16.1 99 1000.7 9.2 SE 11.4 0.8 3.0
02:31 16.2 16.1 99 1000.7 11.4 SE 11.4 0.8 3.0
02:32 16.2 16.1 99 1000.8 11.4 SE 11.4 0.8 3.0
02:33 16.2 16.1 99 1000.8 9.8 SE 11.4 0.0 3.0
02:34 16.2 16.1 99 1000.8 9.8 S 11.4 0.8 3.0
02:35 16.2 16.1 99 1000.9 9.8 S 11.4 0.8 3.0
02:36 16.2 16.1 99 1000.7 9.2 S 11.4 0.8 3.0
02:37 16.2 16.1 99 1000.7 8.3 SE 11.4 0.8 3.0
02:38 16.2 16.1 99 1000.9 8.3 SE 11.4 0.8 3.1
02:39 16.2 16.1 99 1000.7 6.0 SE 11.4 0.8 3.1
02:40 16.2 16.1 99 1000.8 6.9 SE 11.4 0.8 3.1
02:41 16.2 16.1 99 1000.8 6.9 SE 11.4 0.8 3.1
02:42 16.2 16.1 99 1000.8 8.3 SE 10.7 0.8 3.1
02:43 16.2 16.1 99 1000.8 7.6 S 10.7 0.8 3.1
02:44 16.2 16.1 99 1000.8 6.9 SE 9.8 0.0 3.1
02:45 16.2 16.1 99 1000.8 6.0 SE 9.2 0.0 3.1
02:47 16.2 16.1 99 1000.9 7.6 SE 9.2 0.0 3.1
02:48 16.2 16.1 99 1000.9 7.6 SE 9.2 0.0 3.1
02:49 16.2 16.1 99 1000.9 10.7 SE 10.7 0.0 3.1
02:50 16.2 16.1 99 1000.9 10.7 SE 10.7 0.0 3.1
02:51 16.2 16.1 99 1000.9 9.8 S 10.7 0.0 3.1
02:52 16.2 16.1 99 1000.9 11.4 SW 11.4 0.0 3.1
02:53 16.2 16.1 99 1000.7 9.2 S 11.4 0.0 3.1
02:54 16.3 16.2 99 1000.9 11.4 S 11.4 0.0 3.1
02:55 16.3 16.2 99 1000.8 9.8 SE 11.4 0.0 3.1
02:56 16.3 16.2 99 1000.8 9.8 SE 11.4 0.0 3.1
02:57 16.2 16.1 99 1000.8 12.1 S 12.1 0.0 3.1
02:58 16.3 16.2 99 1000.9 7.6 S 14.5 0.0 3.1
02:59 16.3 16.2 99 1001.0 12.1 S 14.5 0.0 3.1
03:00 16.3 16.2 99 1000.8 12.1 S 14.5 0.0 3.1
03:01 16.3 16.2 99 1001.0 12.1 S 14.5 0.0 3.1
03:02 16.3 16.2 99 1001.0 12.1 S 14.5 0.0 3.1
03:03 16.3 16.2 99 1000.7 12.1 S 14.5 0.0 3.1
03:04 16.3 16.2 99 1001.0 12.1 S 14.5 0.0 3.1
03:05 16.3 16.2 99 1000.9 12.1 S 14.5 0.0 3.1
03:07 16.2 16.1 99 1000.8 8.3 S 14.5 0.0 3.1
03:08 16.2 16.1 99 1000.8 8.3 S 12.1 0.8 3.1
03:09 16.3 16.2 99 1000.7 12.1 S 12.1 0.8 3.1
03:10 16.2 16.1 99 1000.6 10.7 S 12.1 0.8 3.1
03:11 16.2 16.1 99 1000.8 11.4 S 12.1 0.8 3.2
03:12 16.2 16.1 99 1000.7 10.7 S 12.1 1.5 3.2
03:13 16.2 16.1 99 1000.7 10.7 S 12.1 0.8 3.2
03:14 16.2 16.1 99 1000.7 15.2 SE 15.2 0.8 3.2
03:15 16.2 16.1 99 1000.7 13.0 SE 15.2 0.8 3.2
03:16 16.2 16.1 99 1000.6 13.0 SE 15.2 0.8 3.2
03:17 16.2 16.1 99 1000.7 11.4 SE 15.2 0.0 3.2
03:18 16.2 16.1 99 1000.9 8.3 SE 15.2 0.0 3.2
03:19 16.2 16.1 99 1000.8 13.6 S 15.2 0.0 3.2
03:20 16.2 16.1 99 1000.7 9.2 SE 15.2 0.0 3.3
03:21 16.2 16.1 99 1000.5 9.2 SE 15.2 0.8 3.3
03:22 16.2 16.1 99 1000.5 8.3 SE 15.2 0.8 3.3
03:23 16.2 16.1 99 1000.3 10.7 SE 15.2 1.5 3.3
03:24 16.2 16.1 99 1000.1 6.9 SE 13.6 1.5 3.3
03:26 16.2 16.1 99 1000.1 0.0 SE 13.6 1.5 3.4
03:27 16.2 16.1 99 1000.0 0.0 S 13.6 1.5 3.4
03:28 16.2 16.1 99 1000.0 0.0 S 13.6 0.8 3.4
03:29 16.2 16.1 99 1000.0 0.0 S 13.6 1.5 3.5
03:30 16.2 16.1 99 1000.0 9.8 SE 13.6 1.5 3.5
03:31 16.2 16.1 99 1000.0 8.3 SE 10.7 0.8 3.5
03:32 16.2 16.1 99 999.9 3.1 S 10.7 1.5 3.5
03:33 16.2 16.1 99 1000.0 3.1 SSE 10.7 1.5 3.5
03:34 16.2 16.1 99 1000.0 0.0 SE 10.7 1.5 3.6
03:35 16.2 16.1 99 999.9 0.0 SE 9.8 1.5 3.6
03:36 16.2 16.1 99 999.9 0.0 SE 9.8 1.5 3.6
03:37 16.2 16.1 99 1000.0 6.9 S 9.8 1.5 3.7
03:38 16.2 16.1 99 1000.0 4.5 SE 9.8 1.5 3.7
03:39 16.2 16.1 99 1000.1 5.4 SE 9.8 1.5 3.7
03:40 16.2 16.1 99 1000.0 7.6 SE 8.3 1.5 3.8
03:41 16.2 16.1 99 999.8 5.4 S 7.6 2.3 3.8
03:42 16.2 16.1 99 999.8 5.4 S 7.6 2.3 3.8
03:43 16.3 16.2 99 999.7 0.0 SE 7.6 2.3 3.9
03:45 16.2 16.1 99 999.9 0.0 S 7.6 2.3 4.0
03:46 16.3 16.2 99 999.7 0.0 S 7.6 2.3 4.0
03:47 16.3 16.2 99 999.7 0.0 S 7.6 2.3 4.0
03:48 16.2 16.1 99 999.8 0.0 SE 7.6 3.0 4.1
03:49 16.2 16.1 99 999.8 0.0 S 7.6 2.3 4.1
03:50 16.2 16.1 99 999.8 0.0 S 7.6 2.3 4.1
03:51 16.2 16.1 99 999.7 0.0 SE 5.4 2.3 4.2
03:52 16.2 16.1 99 999.6 0.0 SE 5.4 1.5 4.2
03:53 16.2 16.1 99 999.5 7.6 SE 7.6 1.5 4.2
03:54 16.2 16.1 99 999.4 7.6 SE 7.6 1.5 4.2
03:55 16.2 16.1 99 999.2 5.4 SE 7.6 1.5 4.3
03:56 16.2 16.1 99 999.1 2.2 SE 7.6 1.5 4.3
03:57 16.2 16.1 99 999.2 3.1 SE 7.6 1.5 4.3
03:58 16.2 16.1 99 999.5 0.0 S 7.6 1.5 4.3
03:59 16.2 16.1 99 999.7 7.6 SE 7.6 1.5 4.4
04:00 16.2 16.1 99 999.8 7.6 SE 7.6 2.3 4.4
04:01 16.2 16.1 99 999.7 9.8 SE 9.8 1.5 4.5
04:02 16.2 16.1 99 999.5 11.4 S 11.4 2.3 4.5
04:04 16.2 16.1 99 999.5 7.6 S 11.4 1.5 4.5
04:05 16.1 16.0 99 999.6 6.0 SE 11.4 0.8 4.5
04:06 16.1 16.0 99 999.6 6.0 SE 11.4 0.8 4.5
04:07 16.1 16.0 99 999.4 7.6 SE 11.4 0.0 4.5
04:08 16.1 16.0 99 999.5 6.9 S 11.4 0.0 4.5
04:09 16.1 16.0 99 999.5 6.0 SW 11.4 0.0 4.5
04:10 16.1 16.0 99 999.5 6.0 SW 11.4 0.0 4.5
04:11 16.1 16.0 99 999.5 0.0 SE 11.4 0.0 4.5
04:12 16.1 16.0 99 999.5 6.9 E 11.4 0.0 4.5
04:13 16.0 15.9 99 999.4 0.0 SE 10.7 0.0 4.5
04:14 16.0 15.9 99 999.3 5.4 S 7.6 0.0 4.5
04:15 16.0 15.9 99 999.4 6.9 SE 7.6 0.0 4.5
04:16 16.0 15.9 99 999.3 3.8 SE 7.6 0.0 4.5
04:17 16.0 15.9 99 999.4 0.0 SE 7.6 0.0 4.5
04:18 16.0 15.9 99 999.4 0.0 SE 7.6 0.0 4.5
04:19 16.0 15.9 99 999.2 0.0 SE 6.9 0.0 4.5
04:20 16.0 15.9 99 999.2 0.0 NE 6.9 0.0 4.5
04:21 16.0 15.9 99 999.1 0.0 SE 6.9 0.0 4.5
04:23 16.0 15.9 99 999.1 0.0 S 6.9 0.0 4.5
04:24 16.0 15.9 99 999.1 0.0 SE 6.9 0.0 4.5
04:25 15.9 15.8 99 999.3 0.0 SE 6.9 0.0 4.5
04:26 15.9 15.8 99 999.3 0.0 SE 6.9 0.0 4.5
04:27 15.9 15.8 99 999.3 0.0 SE 0.0 0.0 4.5
04:28 15.9 15.8 99 999.4 6.0 SSE 6.0 0.0 4.5
04:29 15.9 15.8 99 999.5 5.4 SE 6.0 0.0 4.5
04:30 15.9 15.8 99 999.5 5.4 SE 6.0 0.0 4.5
04:31 15.8 15.7 99 999.5 7.6 SE 7.6 0.0 4.5
04:32 15.8 15.7 99 999.4 6.9 E 7.6 0.0 4.5
04:33 15.8 15.7 99 999.5 8.3 S 8.3 0.0 4.5
04:34 15.8 15.7 99 999.4 7.6 SE 8.3 0.0 4.5
04:35 15.8 15.7 99 999.3 7.6 SE 8.3 0.0 4.5
04:36 15.8 15.7 99 999.5 6.9 SE 8.3 0.0 4.5
04:37 15.8 15.7 99 999.5 6.9 SE 8.3 0.0 4.5
04:38 15.8 15.7 99 999.5 6.0 SE 8.3 0.0 4.5
04:39 15.8 15.7 99 999.6 9.8 SE 10.7 0.0 4.5
04:40 15.8 15.7 99 999.7 7.6 E 10.7 0.0 4.5
04:42 15.8 15.7 99 999.8 9.2 SE 10.7 0.0 4.5
04:43 15.8 15.7 99 999.8 9.8 SE 10.7 0.0 4.5
04:44 15.8 15.7 99 999.9 15.2 SE 15.2 0.0 4.5
04:45 15.8 15.7 99 999.8 9.2 SE 15.2 0.0 4.5
04:46 15.8 15.7 99 999.9 13.6 S 15.2 0.0 4.5
04:47 15.8 15.7 99 999.7 11.4 SE 15.2 0.0 4.5
04:48 15.8 15.7 99 999.7 11.4 S 15.2 0.0 4.5
04:49 15.8 15.7 99 999.6 9.8 E 15.2 0.0 4.5
04:50 15.8 15.7 99 999.7 12.1 SE 15.2 0.0 4.5
04:51 15.7 15.6 99 999.6 8.3 SE 15.2 0.0 4.5
04:52 15.7 15.6 99 999.6 9.8 S 15.9 0.0 4.5
04:53 15.7 15.6 99 999.6 14.5 SSE 15.9 0.0 4.5
04:54 15.7 15.6 99 999.5 15.9 SE 15.9 0.0 4.5
04:55 15.7 15.6 99 999.5 13.6 S 15.9 0.0 4.5
04:56 15.7 15.6 99 999.5 15.2 S 15.9 0.0 4.5
04:57 15.7 15.6 99 999.5 15.2 S 15.9 0.0 4.5
04:58 15.7 15.6 99 999.3 12.1 SE 15.9 0.0 4.5
04:59 15.7 15.6 99 999.4 7.6 SE 15.9 0.0 4.5
05:01 15.7 15.6 99 999.4 9.2 SE 15.9 0.0 4.5
05:03 15.6 15.5 99 999.4 12.1 S 15.9 0.0 4.5
05:04 15.6 15.5 99 999.5 11.4 SE 15.9 0.0 4.5
05:05 15.6 15.5 99 999.6 14.5 SE 15.2 0.0 4.5
05:06 15.6 15.5 99 999.6 15.9 SE 15.9 0.0 4.5
05:07 15.6 15.5 99 999.7 16.8 SE 16.8 0.0 4.5
05:08 15.6 15.5 99 999.7 15.2 SE 16.8 0.0 4.5
05:09 15.6 15.5 99 999.8 19.0 SE 19.0 0.0 4.5
05:10 15.5 15.4 99 999.7 19.0 SE 19.0 0.0 4.5
05:11 15.5 15.4 99 999.6 21.3 S 21.3 0.0 4.5
05:12 15.5 15.4 99 999.6 11.4 S 21.3 0.0 4.5
05:13 15.5 15.4 99 999.4 10.7 SE 21.3 0.0 4.5
05:14 15.5 15.4 99 999.5 14.5 SE 21.3 0.0 4.5
05:15 15.5 15.4 99 999.5 11.4 SE 21.3 0.0 4.5
05:16 15.5 15.4 99 999.5 13.0 E 21.3 0.0 4.5
05:17 15.4 15.3 99 999.4 19.7 S 21.3 0.0 4.5
05:18 15.4 15.3 99 999.5 13.0 SE 21.3 0.0 4.5
05:19 15.4 15.3 99 999.4 10.7 SE 21.3 0.0 4.5
05:20 15.4 15.3 99 999.4 13.6 SE 21.3 0.0 4.5
05:21 15.4 15.3 99 999.3 13.6 SE 21.3 0.0 4.5
05:22 15.4 15.3 99 999.4 9.2 E 19.7 0.0 4.5
05:23 15.4 15.3 99 999.5 12.1 S 19.7 0.0 4.5
05:24 15.3 15.2 99 999.4 15.2 SE 19.7 0.0 4.5
05:25 15.3 15.2 99 999.4 14.5 SE 19.7 0.0 4.5
05:26 15.3 15.2 99 999.8 11.4 S 19.7 0.0 4.5
05:27 15.3 15.2 99 999.5 18.3 SE 18.3 0.0 4.5
05:28 15.3 15.2 99 999.7 15.2 S 18.3 0.0 4.5
05:29 15.3 15.2 99 999.6 14.5 SE 18.3 0.0 4.5
05:30 15.3 15.2 99 999.6 9.2 SE 18.3 0.0 4.5
05:31 15.3 15.2 99 999.6 9.2 SE 18.3 0.0 4.5
05:32 15.3 15.2 99 999.6 13.6 S 18.3 0.0 4.5
05:33 15.3 15.2 99 999.5 18.3 SE 18.3 0.0 4.5
05:34 15.3 15.2 99 999.4 15.9 SE 18.3 0.0 4.5
05:35 15.3 15.2 99 999.4 11.4 S 18.3 0.0 4.5
05:36 15.2 15.1 99 999.2 13.0 SE 18.3 0.0 4.5
05:37 15.3 15.2 99 999.2 16.8 S 18.3 0.0 4.5
05:38 15.2 15.1 99 999.3 15.2 SE 18.3 0.0 4.5
05:39 15.2 15.1 99 999.0 16.8 S 18.3 0.0 4.5
05:40 15.2 15.1 99 999.2 12.1 SE 18.3 0.0 4.5
05:41 15.2 15.1 99 999.0 9.8 SE 18.3 0.0 4.5
05:42 15.2 15.1 99 998.9 10.7 SE 18.3 0.0 4.5
05:43 15.2 15.1 99 999.0 9.8 SE 16.8 0.0 4.5
05:44 15.2 15.1 99 999.1 13.6 S 16.8 0.0 4.5
05:45 15.2 15.1 99 999.3 10.7 S 16.8 0.0 4.5
05:46 15.2 15.1 99 999.1 15.9 SE 16.8 0.0 4.5
05:47 15.2 15.1 99 999.1 19.7 S 19.7 0.0 4.5
05:48 15.2 15.1 99 999.0 13.0 SE 19.7 0.0 4.5
05:49 15.1 15.0 99 999.0 13.6 SE 19.7 0.0 4.5
05:50 15.1 15.0 99 999.0 13.6 SE 19.7 0.0 4.5
05:51 15.1 15.0 99 999.2 16.8 SE 19.7 0.0 4.5
05:52 15.1 15.0 99 999.3 13.6 S 19.7 0.0 4.5
05:53 15.1 15.0 99 999.2 11.4 SE 19.7 0.0 4.5
05:54 15.1 15.0 99 999.1 11.4 SE 19.7 0.0 4.5
05:55 15.1 15.0 99 998.8 9.2 S 19.7 0.0 4.5
05:56 15.1 15.0 99 998.6 9.2 SE 19.7 0.0 4.5
05:57 15.1 15.0 99 998.5 7.6 S 19.7 0.0 4.5
05:58 15.1 15.0 99 998.5 8.3 S 16.8 0.0 4.5
05:59 15.0 14.9 99 999.0 9.8 SE 16.8 0.0 4.5
06:00 15.1 15.0 99 999.4 11.4 S 16.8 0.0 4.5
06:01 15.1 15.0 99 999.6 18.3 SE 18.3 0.0 4.5
06:02 15.1 15.0 99 999.5 12.1 S 18.3 0.0 4.5
06:03 15.1 15.0 99 999.6 13.0 S 18.3 0.0 4.5
06:04 15.1 15.0 99 999.9 13.0 SE 18.3 0.0 4.5
06:05 15.1 15.0 99 999.9 15.9 SE 18.3 0.0 4.5
06:06 15.1 15.0 99 1000.0 15.2 SE 18.3 0.0 4.5
06:07 15.1 15.0 99 999.8 11.4 S 18.3 0.0 4.5
06:08 15.1 15.0 99 999.6 12.1 SE 18.3 0.0 4.5
06:09 15.1 15.0 99 999.6 9.2 SE 18.3 0.0 4.5
06:10 15.1 15.0 99 999.8 10.7 SE 18.3 0.0 4.5
06:11 15.1 15.0 99 999.7 11.4 S 18.3 0.0 4.5
06:12 15.1 15.0 99 999.7 9.8 SE 18.3 0.0 4.5
06:13 15.1 15.0 99 999.8 16.8 SE 16.8 0.0 4.5
06:14 15.1 15.0 99 999.7 15.2 SE 16.8 0.0 4.5
06:15 15.1 15.0 99 999.8 13.6 S 16.8 0.0 4.5
06:16 15.1 15.0 99 999.7 8.3 SE 16.8 0.0 4.5
06:17 15.1 15.0 99 999.7 8.3 S 16.8 0.0 4.5
06:18 15.1 15.0 99 999.7 9.2 SE 16.8 0.0 4.5
06:19 15.1 15.0 99 999.7 12.1 S 16.8 0.0 4.5
06:20 15.1 15.0 99 999.7 12.1 S 16.8 0.0 4.5
06:21 15.1 15.0 99 999.6 9.8 S 16.8 0.0 4.5
06:22 15.1 15.0 99 999.4 9.8 S 16.8 0.0 4.5
06:23 15.1 15.0 99 999.5 9.8 S 15.2 0.0 4.5
06:24 15.1 15.0 99 999.4 9.2 S 13.6 0.0 4.5
06:25 15.1 15.0 99 999.5 9.8 S 13.0 0.0 4.5
06:26 15.1 15.0 99 999.5 11.4 S 13.0 0.0 4.5
06:27 15.1 15.0 99 999.5 11.4 S 13.0 0.0 4.5
06:28 15.1 15.0 99 999.4 13.6 E 13.6 0.0 4.5
06:29 15.1 15.0 99 999.4 15.9 SE 15.9 0.0 4.5
06:30 15.1 15.0 99 999.4 10.7 S 15.9 0.0 4.5
06:31 15.1 15.0 99 999.1 7.6 SW 15.9 0.0 4.5
06:32 15.1 15.0 99 999.1 9.8 S 15.9 0.0 4.5
06:33 15.1 15.0 99 999.1 8.3 S 15.9 0.0 4.5
06:34 15.1 15.0 99 999.1 6.9 S 15.9 0.0 4.5
06:35 15.1 15.0 99 999.0 4.5 SE 15.9 0.0 4.5
06:36 15.1 15.0 99 999.0 9.8 S 15.9 0.0 4.5
06:37 15.1 15.0 99 999.1 6.9 S 15.9 0.0 4.5
06:38 15.2 15.1 99 999.3 11.4 S 15.9 0.0 4.5
06:39 15.2 15.1 99 999.4 15.2 SE 15.2 0.0 4.5
06:40 15.2 15.1 99 999.5 13.6 SE 15.2 0.0 4.5
06:41 15.2 15.1 99 999.5 15.9 S 15.9 0.0 4.5
06:42 15.2 15.1 99 999.5 17.4 SE 17.4 0.0 4.5
06:43 15.2 15.1 99 999.4 13.6 W 17.4 0.0 4.5
06:44 15.2 15.1 99 999.3 12.1 S 17.4 0.0 4.5
06:45 15.2 15.1 99 999.2 9.8 S 17.4 0.0 4.5
06:46 15.2 15.1 99 999.1 13.6 SE 17.4 0.0 4.5
06:47 15.2 15.1 99 999.1 13.6 S 17.4 0.0 4.5
06:48 15.2 15.1 99 999.0 10.7 SE 17.4 0.0 4.5
06:49 15.2 15.1 99 999.3 11.4 SE 17.4 0.0 4.5
06:50 15.2 15.1 99 999.3 13.0 S 17.4 0.0 4.5
06:51 15.2 15.1 99 999.4 9.2 S 17.4 0.0 4.5
06:52 15.2 15.1 99 999.5 13.0 S 17.4 0.0 4.5
06:53 15.2 15.1 99 999.5 10.7 S 13.6 0.0 4.5
06:54 15.2 15.1 99 999.5 13.6 SE 13.6 0.0 4.5
06:55 15.2 15.1 99 999.5 13.6 SE 13.6 0.0 4.5
06:56 15.2 15.1 99 999.4 10.7 S 13.6 0.0 4.5
06:57 15.2 15.1 99 999.6 13.0 S 13.6 0.0 4.5
06:58 15.2 15.1 99 999.6 13.0 S 13.6 0.0 4.5
06:59 15.2 15.1 99 999.6 13.0 S 13.6 0.0 4.5
07:00 15.2 15.1 99 999.7 15.2 SSE 15.2 0.0 4.5
07:01 15.2 15.1 99 999.7 15.2 SSE 15.2 0.0 4.5
07:02 15.3 15.2 99 999.9 13.0 SE 15.2 0.0 4.5
07:03 15.3 15.2 99 999.8 12.1 SE 15.2 0.0 4.5
07:04 15.3 15.2 99 999.9 13.6 S 15.2 0.0 4.5
07:05 15.3 15.2 99 1000.0 14.5 E 15.2 0.0 4.5
07:06 15.3 15.2 99 999.9 9.8 S 15.2 0.0 4.5
07:07 15.3 15.2 99 999.9 8.3 S 15.2 0.0 4.5
07:08 15.3 15.2 99 999.9 11.4 SE 15.2 0.0 4.5
07:09 15.3 15.2 99 999.9 12.1 SE 15.2 0.0 4.5
07:10 15.3 15.2 99 999.9 10.7 SE 15.2 0.0 4.5
07:11 15.3 15.2 99 999.8 9.8 SE 14.5 0.0 4.5
07:12 15.3 15.2 99 1000.0 9.8 SE 14.5 0.0 4.5
07:13 15.3 15.2 99 999.8 12.1 E 14.5 0.0 4.5
07:14 15.3 15.2 99 999.9 3.8 SE 14.5 0.0 4.5
07:15 15.3 15.2 99 999.8 12.1 S 13.6 0.0 4.5
07:16 15.3 15.2 99 999.9 9.8 S 13.6 0.0 4.5
07:17 15.3 15.2 99 1000.0 12.1 S 13.6 0.0 4.5
07:18 15.3 15.2 99 1000.0 13.6 SE 13.6 0.0 4.5
07:19 15.3 15.2 99 1000.0 11.4 S 13.6 0.0 4.5
07:20 15.3 15.2 99 1000.0 7.6 S 13.6 0.0 4.5
07:21 15.3 15.2 99 1000.0 12.1 S 13.6 0.0 4.5
07:22 15.3 15.2 99 999.9 10.7 S 13.6 0.0 4.5
07:23 15.3 15.2 99 999.9 9.2 S 13.6 0.0 4.5
07:24 15.3 15.2 99 999.9 10.7 S 13.6 0.0 4.5
07:25 15.4 15.3 99 999.9 8.3 SW 13.6 0.0 4.5
07:26 15.4 15.3 99 999.8 13.0 SE 13.6 0.0 4.5
07:27 15.4 15.3 99 999.9 13.0 SE 13.6 0.0 4.5
07:28 15.4 15.3 99 1000.0 14.5 S 14.5 0.0 4.5
07:29 15.4 15.3 99 999.9 13.0 S 14.5 0.0 4.5
07:30 15.4 15.3 99 999.9 13.0 S 14.5 0.0 4.5
07:31 15.4 15.3 99 999.9 9.8 SE 14.5 0.0 4.5
07:32 15.4 15.3 99 999.9 11.4 S 14.5 0.0 4.5
07:33 15.4 15.3 99 1000.0 10.7 SSW 14.5 0.0 4.5
07:34 15.4 15.3 99 1000.0 11.4 SE 14.5 0.0 4.5
07:35 15.4 15.3 99 1000.1 10.7 SE 14.5 0.0 4.5
07:36 15.4 15.3 99 1000.0 9.8 S 14.5 0.0 4.5
07:37 15.4 15.3 99 999.9 13.0 SE 14.5 0.0 4.5
07:38 15.4 15.3 99 1000.1 10.7 S 13.0 0.0 4.5
07:39 15.4 15.3 99 1000.1 12.1 S 13.0 0.0 4.5
07:40 15.4 15.3 99 1000.1 12.1 S 13.0 0.0 4.5
07:41 15.4 15.3 99 1000.0 13.0 S 13.0 0.0 4.5
07:42 15.4 15.3 99 1000.2 13.0 SE 13.0 0.0 4.5
07:43 15.4 15.3 99 1000.1 12.1 SE 13.0 0.0 4.5
07:44 15.3 15.2 99 1000.1 10.7 E 13.0 0.0 4.5
07:45 15.4 15.3 99 1000.1 13.6 E 13.6 0.0 4.5
07:46 15.4 15.3 99 1000.1 15.2 S 15.2 0.0 4.5
07:47 15.3 15.2 99 1000.0 15.2 S 15.2 0.0 4.5
07:48 15.3 15.2 99 1000.2 13.6 S 15.2 0.0 4.5
07:49 15.3 15.2 99 1000.2 12.1 S 15.2 0.0 4.5
07:50 15.3 15.2 99 1000.2 12.1 SE 15.2 0.0 4.5
07:51 15.3 15.2 99 1000.2 9.8 E 15.2 0.0 4.5
07:53 15.3 15.2 99 1000.2 15.9 SE 15.9 0.0 4.5
07:54 15.3 15.2 99 1000.3 14.5 S 15.9 0.0 4.5
07:55 15.3 15.2 99 1000.2 14.5 SE 15.9 0.0 4.5
07:56 15.3 15.2 99 1000.2 13.6 SE 15.9 0.0 4.5
07:57 15.3 15.2 99 1000.3 11.4 WSW 15.9 0.0 4.5
07:58 15.3 15.2 99 1000.3 13.6 SE 15.9 0.0 4.5
07:59 15.3 15.2 99 1000.3 13.6 SE 15.9 0.0 4.5
08:00 15.3 15.2 99 1000.2 13.0 S 15.9 0.0 4.5
08:01 15.3 15.2 99 1000.2 13.0 S 15.9 0.0 4.5
08:02 15.3 15.2 99 1000.3 9.8 E 15.9 0.0 4.5
08:03 15.3 15.2 99 1000.2 13.0 S 15.9 0.0 4.5
08:04 15.2 15.1 99 1000.5 14.5 S 14.5 0.0 4.5
08:05 15.2 15.1 99 1000.4 13.6 SE 14.5 0.0 4.5
08:06 15.2 15.1 99 1000.3 9.2 SE 14.5 0.0 4.5
08:07 15.2 15.1 99 1000.4 13.6 S 14.5 0.0 4.5
08:08 15.2 15.1 99 1000.2 15.2 S 19.0 0.0 4.5
08:09 15.2 15.1 99 1000.4 15.2 S 19.0 0.0 4.5
08:10 15.2 15.1 99 1000.5 13.6 SE 19.0 0.0 4.5
08:11 15.2 15.1 99 1000.2 15.9 S 19.0 0.0 4.5
08:13 15.2 15.1 99 1000.3 12.1 S 19.0 0.0 4.5
08:14 15.2 15.1 99 1000.5 12.1 S 19.0 0.0 4.5
08:15 15.2 15.1 99 1000.4 10.7 S 19.0 0.0 4.5
08:16 15.2 15.1 99 1000.5 12.1 S 19.0 0.0 4.5
08:17 15.2 15.1 99 1000.4 10.7 SE 19.0 0.0 4.5
08:18 15.2 15.1 99 1000.3 17.4 SE 17.4 0.0 4.5
08:19 15.2 15.1 99 1000.3 15.2 S 17.4 0.0 4.5
08:20 15.2 15.1 99 1000.5 12.1 S 17.4 0.0 4.5
08:21 15.2 15.1 99 1000.4 13.6 SE 17.4 0.0 4.5
08:22 15.2 15.1 99 1000.4 17.4 S 17.4 0.0 4.5
08:23 15.2 15.1 99 1000.3 13.6 S 17.4 0.0 4.5
08:24 15.2 15.1 99 1000.3 13.0 S 17.4 0.0 4.5
08:25 15.2 15.1 99 1000.4 14.5 S 17.4 0.0 4.5
08:26 15.2 15.1 99 1000.4 10.7 SE 17.4 0.0 4.5
08:27 15.2 15.1 99 1000.4 13.0 SW 17.4 0.0 4.5
08:29 15.2 15.1 99 1000.5 15.2 S 17.4 0.0 4.5
08:30 15.2 15.1 99 1000.4 12.1 S 17.4 0.0 4.5
08:31 15.2 15.1 99 1000.4 18.3 SW 18.3 0.0 4.5
08:32 15.2 15.1 99 1000.4 10.7 SE 18.3 0.0 4.5
08:33 15.2 15.1 99 1000.4 14.5 SW 18.3 0.0 4.5
08:34 15.2 15.1 99 1000.4 15.2 S 18.3 0.0 4.5
08:35 15.2 15.1 99 1000.4 15.2 S 18.3 0.0 4.5
08:36 15.2 15.1 99 1000.4 14.5 S 18.3 0.0 4.5
08:37 15.2 15.1 99 1000.5 17.4 S 18.3 0.0 4.5
08:38 15.2 15.1 99 1000.4 12.1 SE 18.3 0.0 4.5
08:39 15.2 15.1 99 1000.3 8.3 S 18.3 0.0 4.5
08:40 15.3 15.2 99 1000.4 9.8 S 18.3 0.0 4.5
08:41 15.3 15.2 99 1000.3 9.8 S 18.3 0.0 4.5
08:42 15.3 15.2 99 1000.3 13.0 S 17.4 0.0 4.5
08:44 15.3 15.2 99 1000.4 11.4 SE 17.4 0.0 4.5
08:45 15.3 15.2 99 1000.5 9.8 S 17.4 0.0 4.5
08:46 15.3 15.2 99 1000.5 13.0 S 17.4 0.0 4.5
08:47 15.3 15.2 99 1000.5 10.7 SE 14.5 0.0 4.5
08:48 15.3 15.2 99 1000.4 14.5 S 14.5 0.0 4.5
08:49 15.3 15.2 99 1000.5 15.2 S 15.2 0.0 4.5
08:50 15.2 15.1 99 1000.4 12.1 E 19.0 0.0 4.5
08:51 15.3 15.2 99 1000.5 12.1 SE 19.0 0.0 4.5
08:52 15.2 15.1 99 1000.3 12.1 S 19.0 0.0 4.5
08:53 15.2 15.1 99 1000.4 13.0 SE 19.0 0.0 4.5
08:54 15.2 15.1 99 1000.2 11.4 S 19.0 0.0 4.5
08:55 15.2 15.1 99 1000.3 13.6 S 19.0 0.0 4.5
08:56 15.2 15.1 99 1000.4 9.8 S 19.0 0.0 4.5
08:57 15.2 15.1 99 1000.3 9.2 SW 19.0 0.0 4.5
08:58 15.2 15.1 99 1000.2 9.8 S 19.0 0.0 4.5
08:59 15.2 15.1 99 1000.3 10.7 SE 19.0 0.0 4.5
09:00 15.2 15.1 99 1000.3 10.7 S 13.6 0.0 4.5
09:01 15.2 15.1 99 1000.3 10.7 S 13.6 0.0 4.5
09:02 15.2 15.1 99 1000.4 15.9 E 15.9 0.0 4.5
09:03 15.3 15.2 99 1000.4 13.0 SSE 15.9 0.0 4.5
09:04 15.3 15.2 99 1000.3 13.6 S 16.8 0.0 4.5
09:05 15.3 15.2 99 1000.4 12.1 S 16.8 0.0 4.5
09:06 15.3 15.2 99 1000.5 14.5 S 16.8 0.0 4.5
09:07 15.3 15.2 99 1000.3 11.4 SW 16.8 0.0 4.5
09:09 15.3 15.2 99 1000.5 8.3 S 16.8 0.0 4.5
09:10 15.3 15.2 99 1000.5 13.6 S 16.8 0.0 4.5
09:11 15.3 15.2 99 1000.5 12.1 S 16.8 0.0 4.5
09:12 15.3 15.2 99 1000.5 10.7 SSW 16.8 0.0 4.5
09:13 15.3 15.2 99 1000.5 12.1 S 16.8 0.0 4.5
09:14 15.3 15.2 99 1000.5 12.1 SW 14.5 0.0 4.5
09:15 15.3 15.2 99 1000.5 9.8 S 14.5 0.0 4.5
09:16 15.3 15.2 99 1000.5 8.3 SE 14.5 0.0 4.5
09:17 15.3 15.2 99 1000.5 13.0 S 13.6 0.0 4.5
09:18 15.3 15.2 99 1000.5 9.2 S 13.6 0.0 4.5
09:19 15.3 15.2 99 1000.5 7.6 S 13.6 0.0 4.5
09:20 15.4 15.3 99 1000.4 13.6 S 13.6 0.0 4.5
09:21 15.4 15.3 99 1000.6 11.4 S 13.6 0.0 4.5
09:22 15.5 15.4 99 1000.5 14.5 S 14.5 0.0 4.5
09:23 15.5 15.4 99 1000.6 17.4 SE 17.4 0.0 4.5
09:25 15.5 15.4 99 1000.5 9.2 SE 17.4 0.0 4.5
09:26 15.5 15.4 99 1000.5 12.1 S 17.4 0.0 4.5
09:27 15.5 15.4 99 1000.6 13.6 SE 17.4 0.0 4.5
09:28 15.5 15.4 99 1000.6 11.4 S 17.4 0.0 4.5
09:29 15.5 15.4 99 1000.7 12.1 S 17.4 0.0 4.5
09:30 15.5 15.4 99 1000.5 13.0 S 17.4 0.0 4.5
09:31 15.5 15.4 99 1000.5 13.0 S 17.4 0.0 4.5
09:32 15.5 15.4 99 1000.6 9.8 S 17.4 0.0 4.5
09:33 15.5 15.4 99 1000.7 9.8 S 15.9 0.0 4.5
09:34 15.5 15.4 99 1000.6 9.2 S 14.5 0.0 4.5
09:35 15.5 15.4 99 1000.6 6.9 SE 13.6 0.0 4.5
09:36 15.5 15.4 99 1000.8 14.5 S 14.5 0.0 4.5
09:37 15.5 15.4 99 1000.6 12.1 S 14.5 0.0 4.5
09:38 15.5 15.4 99 1000.7 7.6 SE 14.5 0.0 4.5
09:40 15.5 15.4 99 1000.6 12.1 S 14.5 0.0 4.5
09:41 15.5 15.4 99 1000.6 6.9 S 14.5 0.0 4.5
09:42 15.6 15.5 99 1000.5 11.4 S 14.5 0.0 4.5
09:43 15.6 15.5 99 1000.6 13.0 S 14.5 0.0 4.5
09:44 15.6 15.5 99 1000.7 14.5 S 14.5 0.0 4.5
09:45 15.6 15.5 99 1000.7 13.0 SE 14.5 0.0 4.5
09:46 15.5 15.4 99 1000.6 15.2 S 15.2 0.0 4.5
09:47 15.5 15.4 99 1000.6 15.2 S 15.2 0.0 4.5
09:48 15.6 15.5 99 1000.7 11.4 S 15.2 0.0 4.5
09:49 15.6 15.5 99 1000.6 9.2 S 15.2 0.0 4.5
09:50 15.6 15.5 99 1000.6 10.7 S 15.2 0.0 4.5
09:51 15.6 15.5 99 1000.6 9.8 SW 15.2 0.0 4.5
09:52 15.6 15.5 99 1000.5 10.7 SE 15.2 0.0 4.5
09:53 15.7 15.6 99 1000.6 12.1 SW 15.2 0.0 4.5
09:54 15.7 15.6 99 1000.7 9.2 S 15.2 0.0 4.5
09:55 15.7 15.6 99 1000.7 12.1 SE 15.2 0.0 4.5
09:56 15.7 15.6 99 1000.9 12.1 SW 15.2 0.0 4.5
09:58 15.8 15.7 99 1000.6 8.3 SE 13.6 0.0 4.5
09:59 15.8 15.7 99 1000.9 9.8 S 13.6 0.0 4.5
10:00 15.8 15.7 99 1000.7 12.1 S 13.6 0.0 4.5
10:01 15.8 15.7 99 1000.9 12.1 S 13.6 0.0 4.5
10:02 15.8 15.7 99 1000.9 13.0 SW 13.6 0.0 4.5
10:03 15.8 15.7 99 1000.8 13.0 S 13.6 0.0 4.5
10:04 15.8 15.7 99 1000.9 13.6 SE 13.6 0.0 4.5
10:05 15.8 15.7 99 1000.9 13.0 S 13.6 0.0 4.5
10:06 15.8 15.7 99 1000.9 12.1 S 13.6 0.0 4.5
10:07 15.8 15.7 99 1000.8 15.9 S 15.9 0.0 4.5
10:08 15.8 15.7 99 1000.7 15.2 S 15.9 0.0 4.5
10:09 15.7 15.6 99 1000.9 16.8 SE 16.8 0.0 4.5
10:10 15.7 15.6 99 1000.8 14.5 S 16.8 0.0 4.5
10:11 15.7 15.6 99 1000.8 10.7 SE 16.8 0.0 4.5
10:12 15.7 15.6 99 1000.7 14.5 SSE 16.8 0.0 4.5
10:14 15.7 15.6 99 1000.8 14.5 S 16.8 0.0 4.5
10:15 15.7 15.6 99 1000.9 14.5 S 16.8 0.0 4.5
10:16 15.7 15.6 99 1000.9 10.7 S 16.8 0.0 4.5
10:17 15.8 15.7 99 1000.9 12.1 SE 16.8 0.0 4.5
10:18 15.8 15.7 99 1000.8 12.1 SE 16.8 0.0 4.5
10:19 15.8 15.7 99 1000.9 12.1 S 14.5 0.0 4.5
10:20 15.8 15.7 99 1000.8 13.6 SSE 14.5 0.0 4.5
10:21 15.8 15.7 99 1000.8 11.4 SE 14.5 0.0 4.5
10:22 15.8 15.7 99 1000.8 13.6 S 14.5 0.0 4.5
10:23 15.8 15.7 99 1000.9 10.7 S 14.5 0.0 4.5
10:24 15.8 15.7 99 1000.8 13.0 SE 14.5 0.0 4.5
10:25 15.8 15.7 99 1000.8 13.0 SE 14.5 0.0 4.5
10:26 15.9 15.8 99 1000.8 17.4 S 17.4 0.0 4.5
10:27 15.9 15.8 99 1000.7 13.6 S 17.4 0.0 4.5
10:28 15.9 15.8 99 1000.6 14.5 S 17.4 0.0 4.5
10:29 15.9 15.8 99 1001.0 12.1 SSW 17.4 0.0 4.5
10:30 15.9 15.8 99 1001.0 12.1 S 17.4 0.0 4.5
10:31 15.9 15.8 99 1000.8 14.5 SE 17.4 0.0 4.5
10:33 15.9 15.8 99 1001.0 11.4 S 17.4 0.0 4.5
10:34 15.8 15.7 99 1000.8 11.4 SE 17.4 0.0 4.5
10:35 15.8 15.7 99 1000.9 12.1 S 17.4 0.0 4.5
10:36 15.8 15.7 99 1000.8 10.7 S 15.9 0.0 4.5
10:37 15.8 15.7 99 1000.9 15.2 SE 15.9 0.0 4.5
10:38 15.8 15.7 99 1000.9 13.0 S 15.9 0.0 4.5
10:39 15.8 15.7 99 1000.8 9.2 SSW 15.9 0.0 4.5
10:40 15.9 15.8 99 1000.8 9.8 S 15.9 0.0 4.5
10:41 15.8 15.7 99 1000.8 13.0 SE 15.9 0.0 4.5
10:42 15.8 15.7 99 1000.7 15.9 S 15.9 0.0 4.5
10:43 15.8 15.7 99 1000.7 11.4 SE 15.9 0.0 4.5
10:44 15.8 15.7 99 1000.8 10.7 SSW 15.9 0.0 4.5
10:45 15.8 15.7 99 1000.9 10.7 S 15.9 0.0 4.5
10:46 15.8 15.7 99 1000.7 12.1 E 15.9 0.0 4.5
10:47 15.8 15.7 99 1000.8 9.8 SE 15.9 0.0 4.5
10:48 15.8 15.7 99 1001.0 13.0 S 15.9 0.0 4.5
10:50 15.8 15.7 99 1000.8 8.3 S 15.9 0.0 4.5
10:51 15.8 15.7 99 1000.8 10.7 S 15.9 0.0 4.5
10:52 15.8 15.7 99 1000.8 11.4 S 13.6 0.0 4.5
10:53 15.8 15.7 99 1000.9 13.0 SE 13.6 0.0 4.5
10:54 15.8 15.7 99 1001.0 14.5 SE 14.5 0.0 4.5
10:55 15.8 15.7 99 1000.9 9.8 SE 14.5 0.0 4.5
10:56 15.8 15.7 99 1000.9 13.0 SE 14.5 0.0 4.5
10:57 15.8 15.7 99 1001.0 11.4 SE 14.5 0.0 4.5
10:58 15.8 15.7 99 1001.0 11.4 SE 14.5 0.0 4.5
10:59 15.8 15.7 99 1000.9 9.2 S 14.5 0.0 4.5
11:00 15.8 15.7 99 1001.0 9.8 S 14.5 0.8 4.5
11:01 15.8 15.7 99 1000.8 9.8 S 14.5 0.8 4.5
11:02 15.8 15.7 99 1000.9 10.7 SE 14.5 0.8 4.5
11:03 15.8 15.7 99 1000.9 9.8 SW 14.5 0.8 4.5
11:04 15.8 15.7 99 1000.8 9.8 SW 14.5 0.8 4.5
11:05 15.8 15.7 99 1000.7 10.7 S 13.0 0.0 4.5
11:07 15.8 15.7 99 1000.9 13.0 S 13.0 0.0 4.5
11:08 15.8 15.7 99 1000.9 14.5 S 14.5 0.0 4.5
11:09 15.8 15.7 99 1000.9 14.5 S 14.5 0.0 4.5
11:10 15.8 15.7 99 1000.8 10.7 S 14.5 0.0 4.5
11:12 15.8 15.7 99 1000.9 11.4 S 14.5 0.0 4.5
11:13 15.8 15.7 99 1000.8 9.8 SW 14.5 0.0 4.5
11:14 15.8 15.7 99 1000.9 10.7 S 14.5 0.0 4.5
11:15 15.8 15.7 99 1000.7 9.8 SW 14.5 0.0 4.5
11:16 15.8 15.7 99 1000.9 11.4 SW 14.5 0.0 4.5
11:17 15.9 15.8 99 1000.9 10.7 S 14.5 0.0 4.5
11:18 15.9 15.8 99 1000.9 10.7 S 14.5 0.0 4.5
11:19 15.9 15.8 99 1000.9 9.8 S 14.5 0.0 4.5
11:20 16.0 15.9 99 1001.0 7.6 SE 12.1 0.0 4.5
11:21 16.0 15.9 99 1000.9 7.6 SE 12.1 0.0 4.5
11:22 16.0 15.9 99 1001.0 9.8 SE 11.4 0.0 4.5
11:23 16.1 16.0 99 1000.9 13.0 SE 13.0 0.0 4.5
11:24 16.1 16.0 99 1000.9 13.0 SW 13.0 0.0 4.5
11:25 16.1 16.0 99 1000.9 9.2 SE 13.0 0.0 4.5
11:26 16.1 16.0 99 1000.9 9.8 SE 13.0 0.0 4.5
11:27 16.2 16.1 99 1000.9 12.1 S 13.0 0.0 4.5
11:28 16.2 16.1 99 1001.0 11.4 S 13.0 0.0 4.5
11:29 16.2 16.1 99 1000.9 13.0 S 13.0 0.0 4.5
11:31 16.2 16.1 99 1001.0 9.8 S 13.0 0.0 4.5
11:32 16.2 16.1 99 1001.1 8.3 S 13.0 0.0 4.5
11:33 16.2 16.1 99 1000.9 6.9 SE 13.0 0.0 4.5
11:34 16.2 16.1 99 1001.0 7.6 S 13.0 0.0 4.5
11:35 16.2 16.1 99 1001.0 8.3 S 13.0 0.0 4.5
11:36 16.3 16.2 99 1001.0 12.1 S 13.0 0.0 4.5
11:37 16.3 16.2 99 1001.1 9.8 S 13.0 0.0 4.5
11:38 16.2 16.1 99 1001.0 11.4 SW 13.0 0.0 4.5
11:39 16.2 16.1 99 1001.0 11.4 SW 13.0 0.0 4.5
11:40 16.2 16.1 99 1001.2 12.1 SE 12.1 0.0 4.5
11:41 16.2 16.1 99 1001.2 9.8 S 12.1 0.0 4.5
11:42 16.2 16.1 99 1001.3 9.2 S 12.1 0.0 4.5
11:43 16.2 16.1 99 1001.2 12.1 S 12.1 0.0 4.5
11:44 16.2 16.1 99 1001.1 12.1 SE 14.5 0.0 4.5
11:45 16.1 16.0 99 1001.2 9.2 SE 14.5 0.0 4.5
11:46 16.1 16.0 99 1001.2 6.9 SE 14.5 0.0 4.5
11:47 16.1 16.0 99 1001.2 9.8 SE 14.5 0.0 4.5
11:48 16.1 16.0 99 1001.1 15.2 SE 15.2 0.0 4.5
11:49 16.1 16.0 99 1001.1 9.2 S 15.2 0.0 4.5
11:51 16.1 16.0 99 1001.2 13.0 S 15.2 0.0 4.5
11:52 16.1 16.0 99 1001.1 12.1 S 15.2 0.0 4.5
11:53 16.1 16.0 99 1001.2 9.8 S 15.2 0.0 4.5
11:54 16.1 16.0 99 1001.3 9.8 S 15.2 0.0 4.5
11:55 16.1 16.0 99 1001.2 10.7 SE 15.2 0.0 4.5
11:56 16.1 16.0 99 1001.2 9.8 S 15.2 0.0 4.5
11:57 16.1 16.0 99 1001.3 13.0 S 15.2 0.0 4.5
11:58 16.1 16.0 99 1001.3 13.0 S 15.2 0.0 4.5
11:59 16.0 15.9 99 1001.2 12.1 SW 13.0 0.0 4.5
12:00 16.0 15.9 99 1001.1 14.5 SW 14.5 0.0 4.5
12:01 16.0 15.9 99 1001.4 14.5 SW 14.5 0.0 4.5
12:02 16.0 15.9 99 1001.2 14.5 S 14.5 0.0 4.5
12:03 16.0 15.9 99 1001.4 13.0 S 14.5 0.0 4.5
12:04 16.0 15.9 99 1001.4 14.5 S 14.5 0.0 4.5
12:05 16.0 15.9 99 1001.3 15.2 E 15.2 0.0 4.5
12:06 16.0 15.9 99 1001.3 15.2 SE 15.2 0.0 4.5
12:07 16.0 15.9 99 1001.2 14.5 SE 15.2 0.0 4.5
12:08 16.0 15.9 99 1001.3 13.0 S 15.2 0.0 4.5
12:10 16.0 15.9 99 1001.2 10.7 S 15.2 0.0 4.5
12:11 16.0 15.9 99 1001.1 15.2 SSW 15.2 0.0 4.5
12:12 16.0 15.9 99 1001.4 14.5 S 15.2 0.0 4.5
12:13 16.0 15.9 99 1001.2 13.0 S 15.2 0.0 4.5
12:14 16.0 15.9 99 1001.3 14.5 WNW 15.2 0.0 4.5
12:15 16.0 15.9 99 1001.2 14.5 S 15.2 0.0 4.5
12:16 16.0 15.9 99 1001.3 13.6 SE 15.2 0.0 4.5
12:17 16.0 15.9 99 1001.3 13.6 SE 15.2 0.0 4.5
12:18 15.9 15.8 99 1001.3 15.9 S 15.9 0.0 4.5
12:19 15.9 15.8 99 1001.1 11.4 S 15.9 0.0 4.5
12:20 15.9 15.8 99 1001.2 16.8 S 16.8 0.0 4.5
12:21 15.9 15.8 99 1001.2 13.0 E 16.8 0.0 4.5
12:22 15.9 15.8 99 1001.2 12.1 S 16.8 0.0 4.5
12:23 15.9 15.8 99 1001.3 14.5 SSW 16.8 0.0 4.5
12:24 15.9 15.8 99 1001.4 12.1 NW 16.8 0.0 4.5
12:25 16.0 15.9 99 1001.4 11.4 S 16.8 0.0 4.5
12:26 16.1 16.0 99 1001.2 8.3 S 16.8 0.0 4.5
12:28 16.3 16.2 99 1001.2 12.1 SW 16.8 0.0 4.5
12:29 16.5 16.4 99 1001.4 13.6 S 16.8 0.0 4.5
12:30 16.5 16.4 99 1001.3 13.0 SE 14.5 0.0 4.5
12:31 16.6 16.5 99 1001.1 9.8 S 14.5 0.0 4.5
12:32 16.6 16.5 99 1001.2 13.0 SSE 14.5 0.0 4.5
12:33 16.8 16.7 99 1001.2 13.0 SE 13.6 0.0 4.5
12:34 16.8 16.7 99 1001.2 13.0 SE 13.6 0.0 4.5
12:35 16.8 16.7 99 1001.2 13.0 SE 13.6 0.0 4.5
12:36 16.9 16.8 99 1001.3 9.8 S 13.6 0.0 4.5
12:37 16.9 16.8 99 1001.1 12.1 S 13.6 0.0 4.5
12:38 17.0 16.9 99 1001.1 12.1 SE 13.6 0.0 4.5
12:39 17.1 17.0 99 1001.1 12.1 S 13.6 0.0 4.5
12:40 17.1 17.0 99 1001.0 9.2 S 13.0 0.0 4.5
12:41 17.1 17.0 99 1001.1 8.3 SW 13.0 0.0 4.5
12:42 17.2 17.1 99 1001.0 13.0 SW 13.0 0.0 4.5
12:43 17.3 17.2 99 1001.2 12.1 SE 15.9 0.0 4.5
12:44 17.3 17.2 99 1001.2 12.1 S 15.9 0.0 4.5
12:45 17.3 17.2 99 1001.0 13.0 S 15.9 0.0 4.5
12:46 17.4 17.3 99 1001.0 15.2 SW 15.9 0.0 4.5
12:47 17.4 17.3 99 1001.1 13.0 SE 15.9 0.0 4.5
12:48 17.4 17.3 99 1001.1 10.7 S 15.9 0.0 4.5
12:49 17.4 17.3 99 1001.2 9.2 SW 15.9 0.0 4.5
12:50 17.4 17.3 99 1001.1 11.4 SE 15.9 0.0 4.5
12:51 17.4 17.3 99 1001.0 9.8 S 15.9 0.0 4.5
12:52 17.4 17.3 99 1001.0 11.4 S 15.9 0.0 4.5
12:54 17.4 17.3 99 1001.0 11.4 SW 15.2 0.0 4.5
12:55 17.4 17.3 99 1001.2 14.5 S 15.2 0.0 4.5
12:56 17.6 17.5 99 1001.0 15.2 SW 15.2 0.0 4.5
12:57 17.6 17.5 99 1001.2 18.3 S 18.3 0.0 4.5
12:58 17.7 17.6 99 1001.0 13.6 S 18.3 0.0 4.5
12:59 17.7 17.6 99 1001.0 14.5 S 18.3 0.0 4.5
13:00 17.7 17.6 99 1001.0 14.5 S 18.3 0.0 4.5
13:01 17.7 17.6 99 1001.0 14.5 S 18.3 0.0 4.5
13:02 17.8 17.7 99 1001.1 13.0 S 18.3 0.0 4.5
13:03 17.8 17.5 98 1001.1 13.0 S 18.3 0.0 4.5
13:04 17.8 17.5 98 1001.2 12.1 S 18.3 0.0 4.5
13:05 17.8 17.3 97 1001.1 11.4 S 18.3 0.0 4.5
13:06 17.8 17.3 97 1001.1 15.2 S 18.3 0.0 4.5
13:07 17.7 17.1 96 1001.2 13.6 SW 18.3 0.0 4.5
13:08 17.8 17.2 96 1001.2 12.1 S 15.2 0.0 4.5
13:09 17.8 17.0 95 1001.2 11.4 S 15.2 0.0 4.5
13:10 17.8 17.0 95 1001.1 11.4 S 15.2 0.0 4.5
13:11 17.8 17.0 95 1001.2 13.6 SE 15.2 0.0 4.5
13:12 17.7 16.7 94 1001.2 15.2 S 15.2 0.0 4.5
13:13 17.6 16.5 93 1001.2 14.5 SW 15.2 0.0 4.5
13:14 17.6 16.5 93 1001.2 9.8 S 15.2 0.0 4.5
13:16 17.5 16.2 92 1001.3 13.6 SW 15.2 0.0 4.5
13:17 17.5 16.2 92 1001.2 13.6 SW 15.2 0.0 4.5
13:18 17.4 15.9 91 1001.4 13.6 S 15.2 0.0 4.5
13:19 17.4 15.9 91 1001.2 13.0 NW 15.2 0.0 4.5
13:20 17.4 15.9 91 1001.4 12.1 SE 15.9 0.0 4.5
13:21 17.4 15.9 91 1001.4 12.1 SE 15.9 0.0 4.5
13:22 17.4 15.9 91 1001.3 9.8 SW 15.9 0.0 4.5
13:23 17.4 15.9 91 1001.3 10.7 S 15.9 0.0 4.5
13:24 17.5 16.0 91 1001.3 9.8 SW 15.9 0.0 4.5
13:25 17.5 16.0 91 1001.4 9.8 SW 15.9 0.0 4.5
13:26 17.6 16.1 91 1001.4 14.5 S 15.9 0.0 4.5
13:27 17.7 16.2 91 1001.3 10.7 SE 15.9 0.0 4.5
13:28 17.8 16.3 91 1001.4 9.2 SW 15.9 0.0 4.5
13:29 17.8 16.3 91 1001.3 9.8 S 15.9 0.0 4.5
13:30 18.0 16.5 91 1001.4 11.4 S 14.5 0.0 4.5
13:31 18.0 16.5 91 1001.3 11.4 S 14.5 0.0 4.5
13:33 18.0 16.3 90 1001.5 10.7 S 14.5 0.0 4.5
13:34 18.0 16.3 90 1001.2 13.6 S 14.5 0.0 4.5
13:35 18.0 16.2 89 1001.5 11.4 S 14.5 0.0 4.5
13:36 18.0 16.2 89 1001.4 14.5 SW 14.5 0.0 4.5
13:37 18.0 16.2 89 1001.6 13.0 S 14.5 0.0 4.5
13:38 18.0 16.2 89 1001.6 13.0 S 14.5 0.0 4.5
13:39 18.0 16.0 88 1001.7 12.1 S 14.5 0.0 4.5
13:40 18.0 16.0 88 1001.6 12.1 S 14.5 0.0 4.5
13:41 17.9 15.9 88 1001.6 13.6 SW 14.5 0.0 4.5
13:42 17.9 15.7 87 1001.6 13.0 SW 14.5 0.0 4.5
13:43 17.8 15.6 87 1001.4 9.8 S 14.5 0.0 4.5
13:44 17.7 15.3 86 1001.5 6.9 S 14.5 0.0 4.5
13:45 17.6 15.2 86 1001.6 9.2 SE 14.5 0.0 4.5
13:46 17.6 15.2 86 1001.5 10.7 SE 14.5 0.0 4.5
13:47 17.6 15.2 86 1001.5 13.0 S 15.9 0.0 4.5
13:48 17.6 15.1 85 1001.6 7.6 S 15.9 0.0 4.5
13:49 17.6 15.1 85 1001.7 13.0 SW 15.9 0.0 4.5
13:50 17.6 15.1 85 1001.7 11.4 S 15.9 0.0 4.5
13:51 17.6 15.1 85 1001.7 15.2 S 15.9 0.0 4.5
13:52 17.6 15.1 85 1001.7 11.4 S 15.9 0.0 4.5
13:53 17.6 15.1 85 1001.6 11.4 SW 15.9 0.0 4.5
13:55 17.6 15.1 85 1001.8 13.0 S 15.9 0.0 4.5
13:56 17.5 14.8 84 1001.7 16.8 S 16.8 0.0 4.5
13:57 17.5 14.8 84 1001.6 13.0 S 16.8 0.0 4.5
13:58 17.5 14.6 83 1001.7 11.4 S 16.8 0.0 4.5
13:59 17.4 14.5 83 1001.6 11.4 SW 16.8 0.0 4.5
14:01 17.4 14.5 83 1002.0 11.4 S 16.8 0.0 4.5
14:02 17.4 14.5 83 1001.9 11.4 S 16.8 0.0 4.5
14:03 17.4 14.5 83 1001.9 11.4 S 16.8 0.0 4.5
14:04 17.4 14.5 83 1002.1 11.4 S 16.8 0.0 4.5
14:05 17.4 14.5 83 1002.1 11.4 S 16.8 0.0 4.5
14:06 17.1 14.2 83 1002.0 15.9 S 16.8 0.0 4.5
14:07 17.0 13.9 82 1002.0 10.7 S 15.9 0.0 4.5
14:08 16.9 13.8 82 1002.0 15.2 SW 15.9 0.0 4.5
14:09 16.8 13.7 82 1002.1 11.4 SW 15.9 0.0 4.5
14:10 16.8 13.7 82 1002.0 11.4 SW 15.9 0.0 4.5
14:11 16.7 13.6 82 1002.0 10.7 S 15.9 0.0 4.5
14:12 16.6 13.5 82 1002.0 14.5 S 15.9 0.0 4.5
14:13 16.6 13.5 82 1001.9 9.8 S 15.9 0.0 4.5
14:14 16.6 13.5 82 1002.0 9.8 S 15.9 0.0 4.5
14:16 16.6 13.5 82 1002.0 9.8 S 15.2 0.0 4.5
14:17 16.6 13.5 82 1002.1 9.8 S 15.2 0.0 4.5
14:18 16.6 13.5 82 1002.1 9.8 S 14.5 0.0 4.5
14:19 16.6 13.5 82 1002.0 9.8 S 14.5 0.0 4.5
14:20 16.6 13.5 82 1002.0 9.8 S 14.5 0.0 4.5
14:21 16.6 13.5 82 1002.0 9.8 S 14.5 0.0 4.5
14:22 16.6 13.5 82 1002.0 9.8 S 14.5 0.0 4.5
14:23 16.6 13.5 82 1002.0 9.8 S 14.5 0.0 4.5
14:24 16.1 13.2 83 1002.2 10.7 SW 10.7 0.8 4.6
14:25 16.1 13.2 83 1002.1 10.7 SW 10.7 0.8 4.6
14:26 16.1 13.2 83 1002.1 10.7 SW 10.7 0.8 4.6
14:27 16.1 13.2 83 1002.0 10.7 SW 10.7 0.8 4.6
14:28 16.1 13.2 83 1002.1 10.7 SW 10.7 0.8 4.6
14:29 16.1 13.2 83 1002.1 10.7 SW 10.7 0.0 4.6
14:30 16.1 13.2 83 1002.1 10.7 SW 10.7 0.0 4.6
14:31 15.9 13.2 84 1002.1 8.3 SW 10.7 0.0 4.6
14:33 15.9 13.2 84 1002.2 8.3 SW 10.7 0.0 4.6
14:34 15.9 13.2 84 1002.3 8.3 SW 10.7 0.0 4.6
14:35 15.9 13.2 84 1002.3 6.9 SW 10.7 0.0 4.6
14:36 15.9 13.2 84 1002.0 8.3 SW 10.7 0.0 4.6
14:37 15.9 13.2 84 1002.3 7.6 S 10.7 0.0 4.6
14:38 15.9 13.2 84 1002.3 8.3 SE 10.7 0.0 4.6
14:39 15.9 13.4 85 1002.3 10.7 SW 10.7 0.0 4.6
14:40 15.8 13.3 85 1002.3 8.3 SE 10.7 0.0 4.6
14:41 15.8 13.3 85 1002.2 6.9 SW 10.7 0.0 4.6
14:42 15.8 13.3 85 1002.3 9.2 S 10.7 0.0 4.6
14:43 15.8 13.3 85 1002.3 7.6 WNW 10.7 0.0 4.6
14:44 15.8 13.3 85 1002.5 9.2 SW 10.7 0.0 4.6
14:45 15.8 13.3 85 1002.3 6.0 S 10.7 0.0 4.6
14:46 15.8 13.3 85 1002.2 8.3 S 10.7 0.0 4.6
14:47 15.8 13.3 85 1002.6 8.3 S 10.7 0.0 4.6
14:49 15.8 13.3 85 1002.3 9.2 S 9.2 0.0 4.6
14:50 15.8 13.3 85 1002.2 6.9 S 9.2 0.0 4.6
14:51 15.8 13.3 85 1002.4 7.6 S 9.2 0.0 4.6
14:52 15.8 13.5 86 1002.2 6.0 SW 9.2 0.0 4.6
14:53 15.8 13.5 86 1002.2 6.0 SW 9.2 0.0 4.6
14:54 15.9 13.6 86 1002.4 8.3 SW 9.2 0.0 4.6
14:55 15.9 13.6 86 1002.4 8.3 SW 9.2 0.0 4.6
14:56 15.9 13.6 86 1002.4 6.0 S 9.2 0.0 4.6
14:57 16.0 13.7 86 1002.3 6.9 WSW 9.2 0.0 4.6
14:58 16.0 13.7 86 1002.1 8.3 S 9.2 0.0 4.6
14:59 16.1 13.8 86 1002.4 7.6 S 9.2 0.0 4.6
15:00 16.1 13.8 86 1002.3 9.8 S 9.8 0.0 4.6
15:01 16.1 13.8 86 1002.4 9.8 S 9.8 0.0 4.6
15:02 16.1 13.8 86 1002.4 7.6 S 9.8 0.0 4.6
15:03 16.1 13.8 86 1002.2 6.0 S 9.8 0.0 4.6
15:04 16.1 13.8 86 1002.4 8.3 S 9.8 0.0 4.6
15:05 16.2 13.9 86 1002.3 6.9 S 9.8 0.0 4.6
15:07 16.2 13.9 86 1002.3 7.6 SW 9.8 0.0 4.6
15:08 16.2 13.9 86 1002.3 9.8 SE 9.8 0.0 4.6
15:09 16.2 13.9 86 1002.4 13.0 S 13.0 0.0 4.6
15:10 16.2 13.9 86 1002.5 9.8 W 13.0 0.0 4.6
15:11 16.1 13.8 86 1002.5 13.6 SW 13.6 0.0 4.6
15:12 16.1 13.8 86 1002.4 11.4 SW 13.6 0.0 4.6
15:13 16.0 13.7 86 1002.5 10.7 SW 13.6 0.0 4.6
15:14 16.0 13.7 86 1002.5 9.2 W 13.6 0.0 4.6
15:15 16.0 13.7 86 1002.5 9.2 W 13.6 0.0 4.6
15:16 15.9 13.6 86 1002.5 9.2 W 13.6 0.0 4.6
15:17 15.9 13.4 85 1002.5 12.1 NNW 13.6 0.8 4.7
15:18 15.8 13.3 85 1002.5 9.8 WSW 13.6 0.8 4.7
15:19 15.7 13.2 85 1002.6 8.3 SW 13.6 0.8 4.7
15:20 15.7 13.2 85 1002.6 8.3 SW 13.6 1.5 4.7
15:21 15.7 13.2 85 1002.6 8.3 SW 13.6 1.5 4.7
15:22 15.7 13.2 85 1002.7 8.3 SW 12.1 0.8 4.7
15:23 15.7 13.2 85 1002.6 8.3 SW 12.1 0.8 4.7
15:24 15.7 13.2 85 1002.7 8.3 SW 12.1 0.8 4.7
15:25 15.7 13.2 85 1002.7 8.3 SW 12.1 0.0 4.7
15:27 15.6 13.1 85 1002.6 5.4 SW 11.4 0.0 4.7
15:28 15.6 13.1 85 1002.5 5.4 SW 9.8 0.0 4.7
15:29 15.6 13.1 85 1002.7 5.4 SW 8.3 0.0 4.7
15:30 15.6 13.1 85 1002.8 5.4 SW 8.3 0.0 4.7
15:31 15.6 13.1 85 1002.5 5.4 SW 8.3 0.0 4.7
15:32 15.6 13.1 85 1002.6 5.4 SW 8.3 0.0 4.7
15:33 15.6 13.1 85 1002.6 5.4 SW 8.3 0.0 4.7
15:34 15.8 13.5 86 1002.8 7.6 SW 8.3 0.0 4.7
15:35 15.8 13.5 86 1002.7 7.6 SW 8.3 0.0 4.7
15:36 15.8 13.5 86 1002.8 7.6 SW 8.3 0.0 4.7
15:37 15.8 13.5 86 1002.8 7.6 W 7.6 0.0 4.7
15:38 15.9 13.6 86 1002.9 13.6 SW 13.6 0.0 4.7
15:39 15.9 13.6 86 1002.6 9.8 SW 13.6 0.0 4.7
15:40 15.9 13.6 86 1002.6 9.8 SW 13.6 0.0 4.7
15:41 15.9 13.4 85 1002.8 9.8 SW 13.6 0.0 4.7
15:42 15.9 13.4 85 1002.9 6.9 SW 13.6 0.0 4.7
15:44 15.9 13.4 85 1002.8 6.9 W 13.6 0.0 4.7
15:45 15.9 13.4 85 1002.9 12.1 W 13.6 0.0 4.7
15:46 15.9 13.4 85 1002.8 12.1 W 13.6 0.0 4.7
15:47 15.9 13.4 85 1002.9 12.1 W 13.6 0.0 4.7
15:48 15.9 13.4 85 1002.8 12.1 W 13.6 0.0 4.7
15:49 15.9 13.4 85 1002.8 12.1 W 12.1 0.0 4.7
15:50 15.9 13.4 85 1002.9 12.1 W 12.1 0.0 4.7
15:51 15.9 13.4 85 1002.9 12.1 W 12.1 0.0 4.7
15:52 15.9 13.4 85 1002.9 12.1 W 12.1 0.0 4.7
15:53 15.9 13.4 85 1002.9 12.1 W 12.1 0.0 4.7
15:54 16.0 13.5 85 1003.0 7.6 SW 12.1 0.0 4.7
15:55 16.0 13.5 85 1003.0 7.6 SW 12.1 0.0 4.7
15:56 16.1 13.6 85 1002.9 10.7 SW 12.1 0.0 4.7
15:57 16.1 13.6 85 1002.9 10.7 W 12.1 0.0 4.7
15:58 16.1 13.6 85 1003.0 10.7 W 12.1 0.0 4.7
15:59 16.1 13.6 85 1003.0 2.2 SW 12.1 0.0 5.2
16:01 16.1 13.6 85 1002.9 7.6 WSW 12.1 6.0 4.7
16:02 16.1 13.6 85 1002.9 7.6 WSW 12.1 0.0 4.7
16:03 16.1 13.6 85 1002.9 9.2 W 10.7 0.0 4.7
16:04 16.1 13.6 85 1002.9 9.8 W 10.7 0.0 4.7
16:05 16.1 13.6 85 1002.9 9.8 W 10.7 0.0 4.7
16:06 16.1 13.6 85 1003.0 9.8 W 10.7 0.0 4.7
16:07 16.1 13.6 85 1003.0 10.7 SW 10.7 0.0 4.7
16:08 16.1 13.6 85 1002.9 10.7 SW 10.7 0.0 4.7
16:09 16.1 13.6 85 1003.0 6.9 W 10.7 0.0 4.7
16:10 16.0 13.5 85 1003.0 10.7 NW 10.7 0.0 4.7
16:11 16.0 13.5 85 1003.0 10.7 NW 10.7 0.0 4.7
16:12 16.0 13.5 85 1003.1 10.7 NW 10.7 0.0 4.7
16:13 16.0 13.5 85 1002.9 10.7 NW 10.7 0.0 4.7
16:14 15.9 13.4 85 1003.1 15.2 NW 15.2 0.0 5.3
16:15 15.9 13.4 85 1003.1 15.9 SW 15.9 6.8 5.5
16:16 15.8 13.3 85 1003.1 13.0 NW 15.9 9.8 5.7
16:17 15.7 13.0 84 1003.1 11.4 S 15.9 12.1 5.8
16:19 15.6 12.9 84 1003.1 13.0 S 15.9 13.6 6.0
16:20 15.5 12.8 84 1003.3 9.8 SW 15.9 9.8 6.1
16:21 15.4 12.7 84 1003.2 13.6 NW 15.9 6.8 6.1
16:22 15.4 12.7 84 1003.3 14.5 SW 15.9 4.5 6.1
16:23 15.4 12.7 84 1003.4 12.1 WSW 15.9 3.8 6.2
16:24 15.3 12.8 85 1003.4 15.2 SW 15.9 3.8 6.2
16:25 15.3 12.8 85 1003.2 15.9 SW 15.9 2.3 6.3
16:26 15.2 12.7 85 1003.4 14.5 WNW 15.9 3.0 6.4
16:27 15.1 12.6 85 1003.4 13.0 W 15.9 3.0 6.4
16:28 15.1 12.6 85 1003.2 13.6 W 15.9 3.8 6.4
16:29 15.1 12.6 85 1003.3 14.5 SW 15.9 3.8 6.5
16:30 15.1 12.6 85 1003.4 8.3 WNW 15.9 2.3 6.5
16:31 15.0 12.5 85 1003.4 9.2 SW 15.9 1.5 6.5
16:32 15.0 12.5 85 1003.4 9.2 W 15.9 1.5 6.5
16:33 15.0 12.5 85 1003.5 10.7 W 15.9 0.8 6.5
16:34 15.0 12.5 85 1003.3 6.9 SW 15.9 0.0 6.5
16:35 15.0 12.5 85 1003.4 9.8 SW 14.5 0.0 6.5
16:37 15.0 12.7 86 1003.4 8.3 W 14.5 0.0 6.6
16:38 15.0 12.7 86 1003.5 13.6 WSW 14.5 0.8 6.6
16:39 15.0 12.7 86 1003.5 7.6 SW 13.6 0.8 6.6
16:40 15.0 12.7 86 1003.5 9.8 W 13.6 1.5 6.6
16:41 15.0 12.7 86 1003.5 11.4 SW 13.6 1.5 6.6
16:42 15.1 12.8 86 1003.5 9.2 S 13.6 1.5 6.6
16:43 15.1 12.8 86 1003.4 10.7 SW 13.6 0.8 6.6
16:44 15.2 13.1 87 1003.5 10.7 W 13.6 0.8 6.6
16:45 15.2 13.1 87 1003.5 10.7 W 13.6 0.0 6.6
16:46 15.3 13.2 87 1003.5 12.1 W 13.6 0.0 6.6
16:47 15.4 13.3 87 1003.6 18.3 SW 18.3 0.0 6.6
16:48 15.4 13.3 87 1003.3 15.9 SW 18.3 0.0 6.6
16:49 15.5 13.4 87 1003.5 9.8 SSW 18.3 0.0 6.6
16:50 15.5 13.4 87 1003.6 12.1 SW 18.3 0.0 6.6
16:51 15.6 13.5 87 1003.5 13.0 WSW 18.3 0.0 6.6
16:52 15.6 13.5 87 1003.6 11.4 NW 18.3 0.0 6.6
16:53 15.6 13.5 87 1003.7 9.8 NW 18.3 0.0 6.6
16:55 15.6 13.5 87 1003.7 8.3 SW 18.3 0.0 6.6
16:56 15.6 13.5 87 1003.8 15.9 SW 18.3 0.0 6.6
16:57 15.5 13.4 87 1003.7 17.4 NW 17.4 0.0 6.6
16:58 15.5 13.4 87 1003.7 17.4 NW 17.4 0.0 6.6
16:59 15.5 13.4 87 1003.8 15.9 WNW 17.4 0.0 6.6
17:00 15.5 13.4 87 1003.6 13.6 W 17.4 0.0 6.6
17:01 15.5 13.4 87 1003.8 13.6 W 17.4 0.0 6.6
17:02 15.5 13.4 87 1003.8 8.3 W 17.4 0.0 6.6
17:03 15.5 13.4 87 1003.8 10.7 NW 17.4 0.0 6.6
17:04 15.6 13.5 87 1003.7 8.3 SW 17.4 0.0 6.6
17:05 15.6 13.5 87 1003.9 13.6 NW 17.4 0.0 6.6
17:06 15.6 13.5 87 1003.9 12.1 SW 17.4 0.0 6.6
17:07 15.6 13.5 87 1003.9 15.9 SW 17.4 0.0 6.6
17:08 15.6 13.5 87 1003.9 12.1 SW 15.9 0.0 6.6
17:09 15.6 13.5 87 1003.9 12.1 W 15.9 0.0 6.6
17:10 15.6 13.5 87 1003.9 10.7 SW 15.9 0.0 6.6
17:11 15.6 13.5 87 1003.8 9.2 W 15.9 0.0 6.6
17:12 15.6 13.5 87 1003.9 11.4 WSW 15.9 0.0 6.6
17:13 15.6 13.5 87 1003.9 9.2 SW 15.9 0.0 6.6
17:14 15.5 13.4 87 1003.9 9.2 W 15.9 0.0 6.6
17:15 15.5 13.4 87 1004.0 7.6 WNW 15.9 0.0 6.6
17:16 15.5 13.4 87 1004.0 13.0 SW 15.9 0.0 6.6
17:17 15.5 13.4 87 1003.9 9.8 W 13.0 0.0 6.6
17:19 15.5 13.4 87 1004.0 8.3 SW 13.0 0.0 6.6
17:20 15.5 13.4 87 1004.0 8.3 W 13.0 0.0 6.6
17:21 15.4 13.3 87 1004.0 13.0 W 13.0 0.0 6.6
17:22 15.4 13.3 87 1004.0 13.0 W 13.0 0.0 6.6
17:23 15.4 13.3 87 1004.0 9.2 NW 13.0 0.0 6.6
17:24 15.4 13.3 87 1003.9 7.6 WNW 13.0 0.0 6.6
17:25 15.4 13.3 87 1004.0 6.0 W 13.0 0.0 6.6
17:26 15.4 13.3 87 1004.1 7.6 W 13.0 0.0 6.6
17:27 15.4 13.3 87 1004.0 7.6 SW 13.0 0.0 6.6
17:28 15.4 13.3 87 1004.0 8.3 SW 13.0 0.0 6.6
17:29 15.4 13.3 87 1004.1 10.7 WNW 13.0 0.0 6.6
17:30 15.4 13.3 87 1004.0 12.1 SW 13.0 0.0 6.6
17:31 15.3 13.2 87 1004.0 17.4 SW 17.4 0.0 6.6
17:32 15.4 13.3 87 1004.2 13.6 W 17.4 0.0 6.6
17:33 15.4 13.3 87 1004.3 14.5 SW 17.4 0.0 6.6
17:34 15.4 13.3 87 1004.4 13.0 SW 17.4 0.0 6.6
17:35 15.4 13.3 87 1004.1 15.2 SW 17.4 0.0 6.6
17:36 15.4 13.3 87 1004.4 14.5 SW 17.4 0.0 6.6
17:37 15.5 13.4 87 1004.3 13.6 SSW 17.4 0.0 6.6
17:39 15.5 13.4 87 1004.3 13.6 NE 17.4 0.0 6.6
17:40 15.5 13.4 87 1004.3 14.5 NW 17.4 0.0 6.6
17:41 15.5 13.4 87 1004.3 14.5 NW 17.4 0.0 6.6
17:42 15.5 13.4 87 1004.4 17.4 WSW 17.4 0.0 6.6
17:43 15.5 13.4 87 1004.4 11.4 N 17.4 0.0 6.6
17:44 15.6 13.5 87 1004.3 11.4 NW 17.4 0.0 6.6
17:45 15.6 13.5 87 1004.4 13.0 S 17.4 0.0 6.6
17:46 15.6 13.5 87 1004.3 12.1 S 17.4 0.0 6.6
17:47 15.5 13.2 86 1004.2 13.0 SW 17.4 0.0 6.6
17:48 15.5 13.2 86 1004.4 13.0 SW 17.4 0.0 6.6
17:49 15.5 13.2 86 1004.3 13.6 SW 17.4 0.0 6.6
17:50 15.5 13.2 86 1004.3 13.0 W 17.4 0.0 6.6
17:51 15.4 13.1 86 1004.3 10.7 W 17.4 0.0 6.6
17:52 15.4 13.1 86 1004.6 10.7 WSW 15.9 0.0 6.6
17:53 15.4 13.1 86 1004.3 12.1 SW 13.6 0.0 6.6
17:54 15.4 13.1 86 1004.5 11.4 W 13.6 0.0 6.6
17:55 15.4 13.1 86 1004.5 9.8 SW 13.6 0.0 6.6
17:57 15.3 13.0 86 1004.5 12.1 SW 16.8 0.0 6.6
17:58 15.3 13.0 86 1004.5 10.7 NW 16.8 0.0 6.6
17:59 15.3 13.0 86 1004.5 14.5 SW 16.8 0.0 6.6
18:00 15.3 13.0 86 1004.5 10.7 NW 16.8 0.0 6.6
18:01 15.3 13.0 86 1004.5 10.7 NW 16.8 0.0 6.6
18:02 15.2 12.9 86 1004.7 14.5 SW 16.8 0.0 6.6
18:03 15.2 12.7 85 1004.6 12.1 NW 16.8 0.0 6.6
18:04 15.2 12.9 86 1004.6 13.0 SW 16.8 0.0 6.6
18:05 15.2 12.9 86 1004.7 13.0 SW 16.8 0.0 6.6
18:06 15.1 12.8 86 1004.7 10.7 S 16.8 0.0 6.6
18:07 15.1 12.8 86 1004.7 13.0 SW 14.5 0.0 6.6
18:08 15.1 12.8 86 1004.6 11.4 WSW 14.5 0.0 6.6
18:09 15.1 12.8 86 1004.6 14.5 W 14.5 0.0 6.6
18:13 15.1 12.6 85 1004.7 7.6 W 14.5 0.0 6.6
18:14 15.1 12.6 85 1004.7 14.5 W 14.5 0.0 6.6
18:15 15.1 12.6 85 1004.7 14.5 W 14.5 0.0 6.6
18:16 15.1 12.8 86 1004.6 12.1 W 14.5 0.0 6.6
18:17 15.1 12.6 85 1004.6 13.0 SW 14.5 0.0 6.6
18:18 15.1 12.8 86 1004.7 9.8 WSW 14.5 0.0 6.6
18:19 15.1 12.8 86 1004.6 11.4 S 14.5 0.0 6.6
18:20 15.1 12.6 85 1004.6 15.9 SW 15.9 0.0 6.6
18:21 15.1 12.8 86 1004.6 9.8 W 15.9 0.0 6.6
18:22 15.1 12.8 86 1004.8 10.7 W 15.9 0.0 6.6
18:24 15.1 12.8 86 1004.7 7.6 NW 15.9 0.0 6.6
18:25 15.1 12.8 86 1004.8 10.7 W 15.9 0.0 6.6
18:26 15.1 12.8 86 1004.8 12.1 SW 15.9 0.0 6.6
18:27 15.1 12.8 86 1004.8 12.1 SW 15.9 0.0 6.6
18:28 15.1 12.6 85 1004.7 15.2 SW 15.9 0.0 6.6
18:29 15.0 12.5 85 1004.9 13.6 SW 15.9 0.0 6.6
18:30 15.0 12.5 85 1004.8 13.0 SW 15.9 0.0 6.6
18:31 15.0 12.5 85 1004.9 12.1 SW 15.2 0.0 6.6
18:32 15.0 12.5 85 1004.9 12.1 W 15.2 0.0 6.6
18:33 15.0 12.5 85 1004.9 13.0 NE 15.2 0.0 6.6
18:34 15.0 12.5 85 1005.1 9.8 NW 15.2 0.0 6.6
18:35 15.0 12.5 85 1005.1 9.8 NW 15.2 0.0 6.6
18:36 15.0 12.5 85 1005.1 12.1 NW 15.2 0.0 6.6
18:37 15.0 12.5 85 1005.0 18.3 SW 18.3 0.0 6.6
18:38 15.0 12.5 85 1005.0 13.0 SW 18.3 0.0 6.6
18:39 15.0 12.5 85 1005.1 13.0 SW 18.3 0.0 6.6
18:40 15.0 12.5 85 1005.2 10.7 SW 18.3 0.0 6.6
18:41 14.9 12.4 85 1005.0 6.9 SW 18.3 0.0 6.6
18:43 14.9 12.4 85 1005.1 8.3 W 18.3 0.0 6.6
18:44 14.9 12.4 85 1005.2 10.7 SW 18.3 0.0 6.6
18:45 14.9 12.4 85 1005.2 10.7 SW 18.3 0.0 6.6
18:46 14.9 12.4 85 1005.2 13.0 SW 18.3 0.0 6.6
18:47 14.8 12.3 85 1005.1 10.7 NW 18.3 0.0 6.6
18:48 14.8 12.3 85 1005.2 11.4 SW 13.6 0.0 6.6
18:49 14.8 12.3 85 1005.2 12.1 SW 13.6 0.0 6.6
18:50 14.8 12.3 85 1005.2 9.8 WSW 13.6 0.0 6.6
18:51 14.8 12.3 85 1005.4 9.8 WSW 13.6 0.0 6.6
18:52 14.8 12.3 85 1005.2 9.2 W 13.6 0.0 6.6
18:53 14.8 12.3 85 1005.3 12.1 SW 13.6 0.0 6.6
18:54 14.7 12.2 85 1005.3 7.6 W 13.0 0.0 6.6
18:55 14.7 12.2 85 1005.4 6.9 SW 13.0 0.0 6.6
18:56 14.8 12.3 85 1005.5 9.2 S 13.0 0.0 6.6
18:57 14.7 12.2 85 1005.4 9.8 SW 12.1 0.0 6.6
18:58 14.8 12.3 85 1005.2 11.4 SW 12.1 0.0 6.6
18:59 14.7 12.2 85 1005.4 7.6 W 12.1 0.0 6.6
19:00 14.7 12.2 85 1005.5 9.2 W 12.1 0.0 6.6
19:02 14.7 12.2 85 1005.4 9.2 SW 12.1 0.0 6.6
19:03 14.7 12.2 85 1005.5 8.3 W 11.4 0.0 6.6
19:04 14.7 12.2 85 1005.3 9.8 W 11.4 0.0 6.6
19:05 14.7 12.2 85 1005.3 9.8 W 11.4 0.0 6.6
19:06 14.6 12.1 85 1005.4 9.2 N 11.4 0.0 6.6
19:07 14.6 12.1 85 1005.5 8.3 SW 11.4 0.0 6.6
19:08 14.6 12.1 85 1005.5 6.0 WSW 11.4 0.0 6.6
19:09 14.6 12.1 85 1005.5 9.2 SW 10.7 0.0 6.6
19:10 14.6 12.1 85 1005.5 12.1 NW 12.1 0.0 6.6
19:11 14.5 12.0 85 1005.5 7.6 SW 12.1 0.0 6.6
19:12 14.5 12.0 85 1005.5 11.4 W 12.1 0.0 6.6
19:13 14.5 12.0 85 1005.6 9.8 SSW 12.1 0.0 6.6
19:14 14.4 11.9 85 1005.5 9.2 NW 12.1 0.0 6.6
19:15 14.4 11.9 85 1005.6 10.7 WNW 12.1 0.0 6.6
19:16 14.4 11.9 85 1005.7 9.8 S 12.1 0.0 6.6
19:17 14.4 11.9 85 1005.6 9.2 WNW 12.1 0.0 6.6
19:18 14.4 11.9 85 1005.6 9.8 WNW 12.1 0.0 6.6
19:19 14.3 11.8 85 1005.7 6.9 NW 12.1 0.0 6.6
19:20 14.3 11.8 85 1005.6 7.6 SW 12.1 0.0 6.6
19:21 14.3 11.8 85 1005.6 7.6 SW 11.4 0.0 6.6
19:22 14.3 11.8 85 1005.7 9.2 SW 10.7 0.0 6.6
19:23 14.2 11.7 85 1005.8 9.8 WNW 10.7 0.0 6.6
19:24 14.2 11.7 85 1005.6 7.6 S 10.7 0.0 6.6
19:25 14.2 11.7 85 1005.7 8.3 S 9.8 0.0 6.6
19:26 14.1 11.6 85 1005.7 9.8 NW 9.8 0.0 6.6
19:28 14.1 11.6 85 1005.7 8.3 N 9.8 0.0 6.6
19:29 14.0 11.5 85 1005.8 7.6 W 9.8 0.0 6.6
19:30 14.0 11.5 85 1005.8 6.9 W 9.8 0.0 6.6
19:31 14.0 11.5 85 1005.8 8.3 SW 9.8 0.0 6.6
19:32 14.0 11.5 85 1005.9 8.3 SW 9.8 0.0 6.6
19:33 14.0 11.5 85 1005.8 9.2 SW 9.8 0.0 6.6
19:35 13.9 11.4 85 1005.9 6.0 W 9.8 0.0 6.6
19:36 13.9 11.4 85 1005.8 8.3 NW 9.2 0.0 6.6
19:37 13.9 11.4 85 1005.8 8.3 NW 9.2 0.0 6.6
19:38 13.9 11.4 85 1005.9 6.0 W 9.2 0.0 6.6
19:39 13.8 11.3 85 1005.8 6.0 SW 9.2 0.0 6.6
19:40 13.8 11.3 85 1006.0 6.9 SW 9.2 0.0 6.6
19:41 13.8 11.3 85 1006.0 6.9 S 9.2 0.0 6.6
19:42 13.8 11.3 85 1006.0 5.4 SW 9.2 0.0 6.6
19:43 13.7 11.2 85 1005.9 5.4 SW 9.2 0.0 6.6
19:44 13.7 11.2 85 1006.0 7.6 SSW 8.3 0.0 6.6
19:45 13.7 11.2 85 1006.1 6.0 SW 8.3 0.0 6.6
19:46 13.6 11.1 85 1006.1 8.3 SW 8.3 0.0 6.6
19:47 13.6 11.1 85 1006.2 6.9 SW 8.3 0.0 6.6
19:48 13.6 11.1 85 1006.2 8.3 SW 9.2 0.0 6.6
19:49 13.5 11.0 85 1006.2 7.6 S 9.2 0.0 6.6
19:50 13.5 11.0 85 1006.2 6.9 SW 9.2 0.0 6.6
19:51 13.5 11.0 85 1006.1 8.3 SW 9.2 0.0 6.6
19:52 13.5 11.0 85 1006.3 7.6 N 9.2 0.0 6.6
19:54 13.4 10.9 85 1006.3 6.9 SW 9.2 0.0 6.6
19:55 13.4 10.9 85 1006.3 9.2 SW 9.2 0.0 6.6
19:56 13.4 10.9 85 1006.3 9.2 SW 9.2 0.0 6.6
19:57 13.4 10.9 85 1006.2 8.3 SW 9.2 0.0 6.6
19:58 13.4 10.9 85 1006.4 7.6 NW 9.8 0.0 6.6
19:59 13.3 10.8 85 1006.5 7.6 SW 9.8 0.0 6.6
20:00 13.3 10.8 85 1006.4 7.6 NW 9.8 0.0 6.6
20:01 13.3 10.8 85 1006.4 7.6 NW 9.8 0.0 6.6
20:02 13.3 10.8 85 1006.5 6.9 SW 9.8 0.0 6.6
20:03 13.3 10.8 85 1006.5 6.9 W 9.8 0.0 6.6
20:04 13.3 10.8 85 1006.4 4.5 SW 9.8 0.0 6.6
20:05 13.3 10.8 85 1006.4 6.9 SW 9.8 0.0 6.6
20:06 13.3 10.8 85 1006.5 7.6 SW 9.8 0.0 6.6
20:07 13.3 10.8 85 1006.5 6.9 W 9.8 0.0 6.6
20:08 13.3 10.8 85 1006.6 6.9 SW 9.2 0.0 6.6
20:09 13.3 10.8 85 1006.5 8.3 S 9.2 0.0 6.6
20:10 13.3 10.8 85 1006.7 6.9 WSW 9.2 0.0 6.6
20:11 13.3 10.8 85 1006.6 8.3 SW 9.2 0.0 6.6
20:12 13.3 10.8 85 1006.6 7.6 SW 8.3 0.0 6.6
20:13 13.3 10.8 85 1006.5 8.3 SW 8.3 0.0 6.6
20:14 13.3 10.8 85 1006.6 8.3 SW 8.3 0.0 6.6
20:15 13.3 10.8 85 1006.5 7.6 SW 9.2 0.0 6.6
20:16 13.3 10.8 85 1006.7 7.6 SW 9.2 0.0 6.6
20:17 13.2 10.7 85 1006.6 11.4 W 11.4 0.0 6.6
20:18 13.2 10.7 85 1006.7 8.3 SW 11.4 0.0 6.6
20:19 13.3 10.8 85 1006.6 5.4 NW 11.4 0.0 6.6
20:20 13.2 10.9 86 1006.8 5.4 SW 11.4 0.0 6.6
20:21 13.2 10.7 85 1006.7 6.0 SW 11.4 0.0 6.6
20:22 13.2 10.7 85 1006.6 6.0 SW 11.4 0.0 6.6
20:23 13.2 10.7 85 1006.7 8.3 SW 11.4 0.0 6.6
20:24 13.2 10.9 86 1006.7 9.2 SW 11.4 0.0 6.6
20:26 13.2 10.9 86 1006.8 7.6 SW 11.4 0.0 6.6
20:28 13.1 10.8 86 1006.8 7.6 SW 9.8 0.0 6.6
20:29 13.1 10.8 86 1006.8 6.0 SW 9.8 0.0 6.6
20:30 13.1 10.8 86 1006.9 6.9 SW 9.8 0.0 6.6
20:31 13.1 10.8 86 1006.7 7.6 SW 9.8 0.0 6.6
20:33 13.1 10.8 86 1006.9 6.9 WSW 9.8 0.0 6.6
20:34 13.1 10.8 86 1006.9 6.9 S 9.8 0.0 6.6
20:35 13.1 10.8 86 1006.9 6.9 SW 9.8 0.0 6.6
20:36 13.0 10.7 86 1007.0 6.9 SW 9.8 0.0 6.6
20:37 13.0 10.7 86 1006.9 8.3 SW 9.8 0.0 6.6
20:38 13.0 10.7 86 1007.0 7.6 SW 8.3 0.0 6.6
20:39 13.0 10.7 86 1007.0 6.0 S 8.3 0.0 6.6
20:40 13.0 10.7 86 1007.1 6.9 SW 8.3 0.0 6.6
20:41 13.0 10.7 86 1007.0 9.8 W 9.8 0.0 6.6
20:43 13.0 10.7 86 1007.0 6.9 SW 9.8 0.0 6.6
20:44 12.9 10.6 86 1007.2 7.6 SW 9.8 0.0 6.6
20:46 12.9 10.6 86 1007.0 5.4 SW 9.8 0.0 6.6
20:47 12.9 10.6 86 1007.3 6.0 SW 9.8 0.0 6.6
20:48 12.9 10.6 86 1007.1 6.9 S 9.8 0.0 6.6
20:49 12.9 10.6 86 1007.1 6.0 SW 9.8 0.0 6.6
20:50 12.9 10.6 86 1007.0 5.4 SW 9.8 0.0 6.6
20:51 12.8 10.5 86 1007.1 6.9 S 8.3 0.0 6.6
20:52 12.8 10.5 86 1007.2 7.6 SW 7.6 0.0 6.6
20:53 12.8 10.5 86 1007.5 9.8 SW 9.8 0.0 6.6
20:54 12.8 10.5 86 1007.2 9.2 SW 9.8 0.0 6.6
20:55 12.8 10.5 86 1007.2 6.9 S 9.8 0.0 6.6
20:56 12.8 10.5 86 1007.2 6.9 SW 9.8 0.0 6.6
20:57 12.8 10.5 86 1007.1 6.9 SW 9.8 0.0 6.6
20:58 12.8 10.5 86 1007.3 7.6 W 9.8 0.0 6.6
20:59 12.8 10.5 86 1007.2 7.6 SW 9.8 0.0 6.6
21:00 12.8 10.5 86 1007.3 6.0 SW 9.8 0.0 6.6
21:01 12.8 10.5 86 1007.2 6.0 SW 9.8 0.0 6.6
21:02 12.8 10.5 86 1007.3 6.0 SW 9.8 0.0 6.6
21:03 12.8 10.5 86 1007.2 6.0 SW 9.8 0.0 6.6
21:04 12.8 10.5 86 1007.3 6.0 SW 9.2 0.0 6.6
21:05 12.8 10.5 86 1007.4 6.0 SW 7.6 0.0 6.6
21:06 12.7 10.4 86 1007.4 7.6 SW 7.6 0.0 6.6
21:07 12.7 10.4 86 1007.3 6.0 SW 7.6 0.0 6.6
21:08 12.7 10.4 86 1007.4 6.0 SSW 7.6 0.0 6.6
21:09 12.7 10.4 86 1007.4 7.6 SW 7.6 0.0 6.6
21:10 12.7 10.4 86 1007.3 6.9 SW 7.6 0.0 6.6
21:11 12.7 10.4 86 1007.4 9.2 SW 9.2 0.0 6.6
21:12 12.7 10.4 86 1007.4 6.9 SW 9.8 0.0 6.6
21:13 12.7 10.4 86 1007.4 8.3 SW 9.8 0.0 6.6
21:14 12.7 10.4 86 1007.4 4.5 NW 9.8 0.0 6.6
21:15 12.7 10.4 86 1007.3 6.0 SW 9.8 0.0 6.6
21:16 12.7 10.4 86 1007.4 6.0 SW 9.8 0.0 6.6
21:17 12.7 10.4 86 1007.4 6.0 SW 9.8 0.0 6.6
21:18 12.6 10.3 86 1007.3 6.0 S 9.8 0.0 6.6
21:19 12.7 10.4 86 1007.3 6.9 S 9.8 0.0 6.6
21:20 12.7 10.4 86 1007.4 9.2 NW 9.8 0.0 6.6
21:21 12.7 10.4 86 1007.4 9.2 S 9.8 0.0 6.6
21:22 12.7 10.6 87 1007.4 6.9 SW 9.2 0.0 6.6
21:24 12.6 10.5 87 1007.5 7.6 SW 9.2 0.0 6.6
21:25 12.6 10.5 87 1007.5 7.6 SW 9.2 0.0 6.6
21:26 12.6 10.5 87 1007.5 7.6 SW 9.2 0.0 6.6
21:27 12.7 10.6 87 1007.4 6.9 SW 9.2 0.0 6.6
21:28 12.7 10.6 87 1007.5 7.6 W 9.2 0.0 6.6
21:29 12.7 10.6 87 1007.4 7.6 W 9.2 0.0 6.6
21:30 12.7 10.6 87 1007.5 8.3 NW 9.2 0.0 6.6
21:31 12.7 10.6 87 1007.5 6.0 W 8.3 0.0 6.6
21:32 12.7 10.6 87 1007.5 6.0 SW 8.3 0.0 6.6
21:33 12.7 10.6 87 1007.5 7.6 SW 8.3 0.0 6.6
21:34 12.7 10.6 87 1007.5 8.3 SW 8.3 0.0 6.6
21:35 12.7 10.6 87 1007.5 8.3 SW 8.3 0.0 6.6
21:36 12.7 10.6 87 1007.6 6.9 SW 8.3 0.0 6.6
21:37 12.7 10.6 87 1007.7 6.9 W 8.3 0.0 6.6
21:38 12.7 10.6 87 1007.8 6.9 S 8.3 0.0 6.6
21:39 12.7 10.6 87 1007.7 7.6 SW 8.3 0.0 6.6
21:40 12.7 10.6 87 1007.7 9.2 SW 9.2 0.0 6.6
21:41 12.7 10.6 87 1007.8 9.2 SW 9.2 0.0 6.6
21:42 12.7 10.6 87 1007.8 7.6 SW 9.2 0.0 6.6
21:44 12.7 10.6 87 1007.8 6.0 SW 9.2 0.0 6.6
21:45 12.7 10.6 87 1007.8 8.3 W 9.8 0.0 6.6
21:46 12.7 10.6 87 1007.9 6.0 SW 9.8 0.0 6.6
21:47 12.7 10.6 87 1007.9 6.9 SW 9.8 0.0 6.6
21:48 12.7 10.6 87 1007.9 10.7 SW 10.7 0.0 6.6
21:49 12.7 10.6 87 1007.9 6.0 SW 10.7 0.0 6.6
21:50 12.7 10.6 87 1007.9 6.9 SW 10.7 0.0 6.6
21:51 12.7 10.6 87 1007.9 9.2 S 10.7 0.0 6.6
21:52 12.7 10.6 87 1008.0 8.3 W 10.7 0.0 6.6
21:53 12.7 10.6 87 1007.9 4.5 SW 10.7 0.0 6.6
21:54 12.7 10.6 87 1007.9 8.3 W 10.7 0.0 6.6
21:55 12.7 10.6 87 1007.9 6.9 SW 10.7 0.0 6.6
21:56 12.7 10.6 87 1007.9 6.9 WSW 10.7 0.0 6.6
21:57 12.7 10.6 87 1007.9 6.0 S 10.7 0.0 6.6
21:58 12.7 10.6 87 1008.0 6.9 SW 10.7 0.0 6.6
21:59 12.7 10.6 87 1008.1 6.0 SW 9.2 0.0 6.6
22:00 12.7 10.6 87 1008.0 5.4 SW 9.2 0.0 6.6
22:01 12.7 10.6 87 1008.0 5.4 SW 9.2 0.0 6.6
22:03 12.7 10.6 87 1008.0 5.4 SW 8.3 0.0 6.6
22:04 12.7 10.6 87 1008.0 5.4 SW 8.3 0.0 6.6
22:05 12.7 10.6 87 1008.1 5.4 SW 6.9 0.0 6.6
22:06 12.7 10.6 87 1008.0 6.0 SW 6.9 0.0 6.6
22:07 12.6 10.5 87 1008.0 8.3 SW 8.3 0.0 6.6
22:08 12.7 10.6 87 1008.1 7.6 S 8.3 0.0 6.6
22:09 12.7 10.6 87 1008.2 6.0 W 8.3 0.0 6.6
22:10 12.7 10.6 87 1008.0 6.0 SW 8.3 0.0 6.6
22:11 12.7 10.6 87 1008.1 7.6 W 8.3 0.0 6.6
22:12 12.7 10.6 87 1008.1 7.6 SW 8.3 0.0 6.6
22:13 12.7 10.6 87 1008.1 5.4 W 8.3 0.0 6.6
22:14 12.6 10.5 87 1008.2 6.9 W 8.3 0.0 6.6
22:15 12.6 10.7 88 1008.0 6.9 W 8.3 0.0 6.6
22:16 12.6 10.5 87 1008.1 6.9 S 8.3 0.0 6.6
22:18 12.6 10.5 87 1008.2 5.4 SW 7.6 0.0 6.6
22:19 12.6 10.7 88 1008.2 6.0 SW 7.6 0.0 6.6
22:20 12.6 10.5 87 1008.2 6.9 SW 7.6 0.0 6.6
22:21 12.6 10.5 87 1008.3 6.0 SW 7.6 0.0 6.6
22:22 12.6 10.5 87 1008.1 4.5 SW 7.6 0.0 6.6
22:23 12.6 10.5 87 1008.2 5.4 W 7.6 0.0 6.6
22:24 12.6 10.5 87 1008.2 5.4 SW 7.6 0.0 6.6
22:25 12.5 10.4 87 1008.2 5.4 S 7.6 0.0 6.6
22:26 12.5 10.4 87 1008.2 5.4 S 7.6 0.0 6.6
22:27 12.5 10.4 87 1008.5 4.5 SW 7.6 0.0 6.6
22:28 12.5 10.4 87 1008.4 4.5 SW 6.9 0.0 6.6
22:29 12.5 10.6 88 1008.3 6.9 W 6.9 0.0 6.6
22:30 12.5 10.6 88 1008.4 6.9 SW 6.9 0.0 6.6
22:31 12.5 10.4 87 1008.3 5.4 SW 6.9 0.0 6.6
22:32 12.4 10.3 87 1008.3 5.4 SW 6.9 0.0 6.6
22:33 12.4 10.3 87 1008.4 6.9 WNW 6.9 0.0 6.6
22:34 12.4 10.3 87 1008.4 6.0 S 6.9 0.0 6.6
22:35 12.4 10.5 88 1008.3 5.4 SW 6.9 0.0 6.6
22:36 12.4 10.3 87 1008.4 5.4 SW 6.9 0.0 6.6
22:37 12.4 10.5 88 1008.4 4.5 S 6.9 0.0 6.6
22:39 12.4 10.5 88 1008.4 5.4 SW 6.9 0.0 6.6
22:40 12.3 10.4 88 1008.3 4.5 SW 6.9 0.0 6.6
22:41 12.3 10.4 88 1008.5 4.5 SW 6.9 0.0 6.6
22:42 12.3 10.2 87 1008.4 6.0 S 6.9 0.0 6.6
22:43 12.3 10.2 87 1008.5 6.0 S 6.0 0.0 6.6
22:44 12.2 10.1 87 1008.4 6.0 SW 6.0 0.0 6.6
22:45 12.2 10.1 87 1008.6 5.4 S 6.0 0.0 6.6
22:46 12.2 10.3 88 1008.5 6.0 S 6.0 0.0 6.6
22:47 12.2 10.1 87 1008.5 5.4 SW 6.0 0.0 6.6
22:48 12.2 10.1 87 1008.5 6.9 SW 6.9 0.0 6.6
22:49 12.2 10.3 88 1008.6 4.5 SW 6.9 0.0 6.6
22:50 12.2 10.3 88 1008.5 5.4 S 6.9 0.0 6.6
22:51 12.2 10.3 88 1008.5 6.0 S 6.9 0.0 6.6
22:52 12.2 10.3 88 1008.5 5.4 SW 6.9 0.0 6.6
22:53 12.2 10.3 88 1008.7 5.4 SW 6.9 0.0 6.6
22:54 12.1 10.2 88 1008.5 6.0 S 6.9 0.0 6.6
22:55 12.1 10.2 88 1008.7 5.4 N 6.9 0.0 6.6
22:56 12.1 10.2 88 1008.5 4.5 SW 6.9 0.0 6.6
22:57 12.1 10.2 88 1008.5 6.0 SW 6.9 0.0 6.6
22:58 12.1 10.2 88 1008.5 5.4 SW 6.0 0.0 6.6
22:59 12.1 10.2 88 1008.6 6.0 SW 6.0 0.0 6.6
23:01 12.1 10.2 88 1008.6 6.0 SW 6.0 0.0 6.6
23:02 12.1 10.2 88 1008.6 5.4 SW 6.0 0.0 6.6
23:03 12.1 10.2 88 1008.6 6.0 NW 6.0 0.0 6.6
23:04 12.1 10.2 88 1008.7 6.0 S 6.0 0.0 6.6
23:05 12.0 10.1 88 1008.6 6.9 SW 6.9 0.0 6.6
23:06 12.0 10.1 88 1008.5 6.9 SW 6.9 0.0 6.6
23:07 12.0 10.1 88 1008.5 6.0 N 6.9 0.0 6.6
23:08 12.0 10.1 88 1008.6 5.4 S 6.9 0.0 6.6
23:09 12.0 10.1 88 1008.6 6.0 SW 6.9 0.0 6.6
23:10 12.0 10.1 88 1008.7 5.4 SW 6.9 0.0 6.6
23:11 12.0 10.1 88 1008.7 5.4 W 6.9 0.0 6.6
23:12 12.0 10.1 88 1008.6 5.4 SSW 6.9 0.0 6.6
23:13 12.0 10.1 88 1008.6 5.4 S 6.9 0.0 6.6
23:14 12.0 10.1 88 1008.5 3.8 SW 6.9 0.0 6.6
23:15 12.0 10.1 88 1008.7 6.0 S 6.9 0.0 6.6
23:16 12.0 10.1 88 1008.8 5.4 W 6.9 0.0 6.6
23:17 12.0 10.1 88 1008.8 4.5 SW 6.0 0.0 6.6
23:18 12.0 10.1 88 1008.6 4.5 SW 6.0 0.0 6.6
23:19 12.0 10.1 88 1008.7 4.5 SW 6.0 0.0 6.6
23:20 12.0 10.1 88 1008.8 5.4 SW 6.0 0.0 6.6
23:21 12.0 10.1 88 1008.8 6.0 S 6.0 0.0 6.6
23:22 12.0 10.1 88 1008.9 4.5 SW 6.0 0.0 6.6
23:23 12.0 10.1 88 1008.7 3.8 SW 6.0 0.0 6.6
23:24 12.0 10.1 88 1008.7 3.8 SW 6.0 0.0 6.6
23:25 12.0 10.1 88 1008.7 3.8 SW 6.0 0.0 6.6
23:26 12.0 10.1 88 1008.8 3.8 SW 6.0 0.0 6.6
23:27 12.0 10.1 88 1008.8 3.8 S 6.0 0.0 6.6
23:28 12.0 10.1 88 1008.9 3.1 SW 6.0 0.0 6.6
23:29 12.0 10.1 88 1008.9 3.1 S 6.0 0.0 6.6
23:30 12.0 10.1 88 1009.0 3.8 S 6.0 0.0 6.6
23:32 11.9 10.0 88 1008.8 3.8 S 3.8 0.0 6.6
23:33 11.9 10.0 88 1008.9 3.1 SW 3.8 0.0 6.6
23:34 11.9 10.0 88 1008.9 2.2 SW 3.8 0.0 6.6
23:35 11.9 10.0 88 1009.0 3.1 SW 3.8 0.0 6.6
23:36 11.9 10.0 88 1008.9 4.5 WSW 4.5 0.0 6.6
23:37 11.8 9.9 88 1009.0 4.5 SW 5.4 0.0 6.6
23:38 11.8 9.9 88 1009.0 6.0 SW 6.0 0.0 6.6
23:39 11.8 9.9 88 1009.0 6.0 SW 6.0 0.0 6.6
23:40 11.8 9.9 88 1008.9 6.9 SW 6.9 0.0 6.6
23:41 11.8 9.9 88 1009.0 4.5 W 6.9 0.0 6.6
23:42 11.8 9.9 88 1009.0 5.4 S 6.9 0.0 6.6
23:43 11.8 9.9 88 1009.0 6.0 S 6.9 0.0 6.6
23:44 11.8 9.9 88 1009.1 5.4 S 6.9 0.0 6.6
23:45 11.8 9.9 88 1009.0 6.0 S 6.9 0.0 6.6
23:46 11.8 9.9 88 1008.9 5.4 S 6.9 0.0 6.6
23:47 11.8 10.0 89 1009.0 7.6 SW 7.6 0.0 6.6
23:48 11.8 9.9 88 1008.9 6.0 SW 7.6 0.0 6.6
23:49 11.8 10.0 89 1009.0 6.0 SW 7.6 0.0 6.6
23:50 11.8 10.0 89 1008.9 6.9 SW 7.6 0.0 6.6
23:52 11.9 10.1 89 1009.0 7.6 SW 8.3 0.0 6.6
23:53 11.9 10.1 89 1009.1 6.9 S 8.3 0.0 6.6
23:54 11.9 10.1 89 1009.0 6.9 SW 8.3 0.0 6.6
23:55 11.9 10.1 89 1008.9 8.3 SSW 8.3 0.0 6.6
23:56 11.9 10.1 89 1009.0 6.0 SW 8.3 0.0 6.6
23:57 12.0 10.2 89 1009.0 9.2 SW 9.2 0.0 6.6
23:58 12.0 10.2 89 1009.0 6.9 SW 9.2 0.0 6.6
23:59 12.0 10.2 89 1009.0 6.9 SW 9.2 0.0 6.6

UK - WEATHER STATION TOPSITES - UK World Weather Websites

This is a private weather station, never base important decisions or events on data from this weather station. Although every effort has been made to make the data as accurate as possible it does not meet MetOffice standards. It is proved as a guide of local weather conditions. We accept no liability for any loss which may arise from use of the data.

Copyright © Carnkie Weather 2009 - 2019.